GFSNE_sfc_temp_003.txt.gz
Temp
39 39 40 40 38 39 40 41 37 32 34 36 37 43 46 45 47 50 49 48 47 47 48 51 52 52 52 52 53 54 55 56 57 58 58 58 59 59
40 38 38 39 42 40 39 38 39 37 33 37 41 44 47 51 50 50 51 50 47 47 46 48 50 51 51 51 51 52 52 53 53 54 55 56 57 58
38 38 39 41 40 40 40 40 39 38 34 40 40 42 43 43 46 49 50 49 47 46 46 47 47 47 47 48 49 50 50 51 51 51 52 53 55 57
36 36 36 42 37 40 41 41 41 41 38 34 35 38 39 42 43 45 51 54 49 48 47 47 46 45 45 45 46 46 47 48 48 49 49 50 50 51
34 34 35 35 34 36 36 34 35 39 34 34 31 35 37 40 40 42 46 46 51 50 46 45 46 45 45 45 45 45 45 45 45 45 45 46 47 47
33 33 34 34 34 33 36 34 36 31 31 29 31 32 33 37 38 35 36 40 40 48 47 44 44 44 45 45 44 45 45 45 45 44 43 42 42 43
31 33 34 35 39 38 37 34 31 29 29 29 27 28 28 30 31 32 30 32 35 36 36 37 38 39 41 42 44 44 43 43 44 44 44 43 41 42
28 30 31 34 35 37 35 35 34 29 27 26 26 25 25 27 29 28 29 27 27 34 32 30 34 34 38 40 42 42 42 42 43 43 43 43 42 41
27 28 30 34 32 33 34 34 33 34 34 28 26 26 26 28 28 26 26 26 25 30 30 28 30 30 33 41 43 43 43 43 42 42 42 40 40 40
29 30 29 29 30 31 30 29 29 29 30 31 28 29 29 30 30 31 29 28 27 29 30 25 28 26 31 32 40 42 42 42 42 42 41 41 40 40
30 30 30 29 32 33 29 27 27 28 34 35 36 34 32 34 34 31 27 25 23 27 28 27 25 23 23 26 30 39 41 41 41 41 41 41 40 39
26 28 30 30 30 29 27 24 22 25 27 27 27 29 31 32 34 32 30 27 25 20 29 29 29 25 22 24 26 29 27 36 39 40 40 40 40 36
24 25 27 29 30 30 30 26 24 27 27 25 25 25 27 29 30 31 31 29 27 27 31 31 26 25 24 24 24 26 24 28 30 34 39 40 40 39
23 25 25 29 29 29 28 29 29 27 22 22 23 24 25 26 29 31 32 32 33 31 34 33 29 27 27 24 23 26 23 25 25 30 29 35 38 38
24 25 27 27 27 26 27 28 26 26 25 23 23 24 26 28 30 29 30 31 32 32 34 33 31 31 30 27 23 24 25 27 24 25 26 28 32 26
24 24 24 25 24 25 25 25 25 24 24 23 23 25 27 27 27 28 27 28 28 27 31 32 33 32 30 30 29 27 27 27 24 25 31 31 30 30
23 20 21 22 21 22 23 23 23 24 22 22 23 24 25 26 26 27 28 27 27 23 25 28 31 32 32 31 27 28 29 25 25 25 29 26 31 30
22 19 18 18 18 20 19 20 21 22 22 22 22 24 24 24 25 27 26 25 24 25 22 25 25 28 29 28 33 29 26 27 24 26 25 29 30 26
18 17 15 15 16 19 18 18 18 21 22 21 22 22 23 24 24 23 22 21 22 26 29 28 29 29 26 22 25 31 29 26 25 22 22 23 29 29
17 17 15 15 16 18 18 18 18 20 19 20 20 20 22 22 20 22 21 20 23 25 24 24 23 22 20 19 20 16 31 22 23 21 21 23 28 30
16 18 17 15 16 17 15 15 14 16 16 16 17 19 20 22 22 18 20 20 18 24 23 22 22 24 23 22 22 18 18 30 24 18 21 21 22 26
7 15 17 17 14 15 13 12 15 15 14 15 15 16 18 21 21 20 19 20 17 16 19 21 25 26 25 22 19 18 16 15 24 29 29 27 21 21
5 8 12 12 12 12 16 13 12 10 12 12 13 14 15 17 20 22 17 17 21 16 16 22 23 24 22 22 19 21 14 13 20 18 18 29 29 29

GFSNE_sfc_temp_006.txt.gz
Temp
36 36 36 37 37 38 40 37 33 30 33 34 35 41 41 41 44 45 46 47 46 46 46 47 49 50 50 53 53 54 54 55 56 57 57 58 58 59
37 35 35 36 37 39 39 38 36 33 30 36 38 41 43 47 47 44 48 48 47 45 45 46 47 50 51 51 51 52 52 53 53 54 54 55 57 57
35 34 34 35 33 34 35 37 37 36 32 35 37 38 38 39 42 43 46 46 46 46 45 45 46 47 48 48 50 50 51 51 51 52 52 52 54 55
33 32 32 37 32 33 33 33 34 36 36 31 34 35 36 38 38 39 44 49 46 47 45 45 45 45 45 45 46 46 47 48 48 49 50 50 51 51
31 31 31 31 30 31 31 32 33 37 35 33 33 34 34 36 37 38 38 38 45 48 45 44 44 45 45 45 45 45 45 45 45 45 46 46 48 49
32 31 30 29 29 29 31 31 33 30 30 30 29 29 30 33 34 32 30 33 35 43 43 42 41 43 44 43 43 44 45 45 45 44 43 41 42 44
30 30 30 32 35 35 33 30 28 27 27 27 26 26 27 27 28 29 29 29 31 33 35 36 34 36 38 40 43 44 44 44 44 44 44 43 41 41
27 28 28 31 31 33 33 34 34 29 28 26 25 24 25 25 26 26 25 25 26 30 30 30 33 33 35 37 41 42 42 43 43 43 43 43 42 41
26 27 28 32 31 30 31 33 32 33 34 29 26 25 25 26 27 25 24 24 24 29 28 26 31 30 32 39 40 43 43 42 42 42 42 41 40 39
27 27 27 27 29 29 29 29 29 29 30 30 27 27 27 28 28 29 27 27 28 28 29 22 27 25 29 31 38 41 42 42 42 41 41 41 40 40
28 28 28 27 29 32 28 26 26 28 32 33 34 33 33 33 32 29 27 27 25 26 27 26 25 21 22 23 28 38 40 40 41 41 41 41 40 39
25 27 28 28 30 30 27 25 23 25 26 26 26 28 29 29 32 31 27 25 25 21 27 26 25 23 20 21 23 24 24 35 38 40 40 41 40 35
23 24 25 28 29 30 30 25 25 27 26 26 24 24 25 27 28 28 27 26 24 24 28 29 25 24 22 22 22 24 23 24 25 32 38 39 40 38
22 24 24 28 28 28 27 28 28 26 24 22 22 22 22 23 27 29 30 30 29 29 33 30 26 25 22 19 21 24 22 23 21 27 26 33 36 37
23 26 27 27 26 26 27 26 25 23 22 20 23 24 25 27 29 28 29 30 30 31 32 32 30 29 27 25 21 23 22 23 20 22 21 23 25 24
23 23 23 25 23 24 24 24 24 23 23 21 22 24 26 27 27 28 27 27 27 27 30 30 31 32 30 29 29 26 25 24 22 23 30 30 30 32
17 17 19 19 19 19 19 21 22 23 22 22 22 23 25 26 27 28 27 28 25 23 25 27 28 30 31 31 28 29 26 23 22 25 24 25 25 28
15 13 12 13 16 17 15 16 19 20 21 21 21 22 23 24 25 26 26 23 23 23 23 28 28 29 29 28 32 28 28 28 23 24 26 25 28 24
10 12 10 12 11 17 16 15 15 18 20 19 19 20 21 23 23 23 19 18 19 24 23 22 26 28 26 24 24 31 28 30 27 18 22 28 29 25
11 11 11 13 15 16 16 14 14 14 14 16 17 17 18 20 19 20 19 17 20 23 23 21 20 23 20 18 18 17 29 26 27 25 26 25 27 31
10 11 9 11 13 14 10 10 9 10 11 11 14 15 16 18 19 20 18 16 15 20 19 19 20 23 22 22 17 16 15 28 23 15 16 14 16 21
4 9 10 10 9 11 9 7 9 6 9 11 11 12 13 16 17 19 17 14 15 13 16 19 23 25 21 21 16 12 15 13 22 28 28 25 17 16
2 6 4 2 4 7 11 8 8 6 7 9 9 10 10 12 16 17 15 15 16 14 15 19 20 21 22 22 17 19 13 10 21 17 15 28 29 29

GFSNE_sfc_temp_009.txt.gz
Temp
34 33 33 34 34 34 35 35 33 27 29 32 32 38 40 42 42 40 42 48 47 46 46 47 49 50 49 50 52 53 54 55 56 57 58 58 58 59
34 33 33 33 32 32 32 32 33 32 28 33 34 37 41 44 44 38 41 47 46 45 45 44 45 47 49 49 49 52 52 53 54 55 54 55 57 58
32 32 32 32 30 30 30 30 31 31 28 32 36 40 39 38 40 41 41 40 41 45 44 43 43 44 46 47 47 48 50 51 51 52 53 54 55 56
31 31 31 35 29 29 28 29 29 31 30 28 32 33 36 38 38 38 41 43 39 45 43 42 41 42 43 44 45 46 47 49 49 49 50 52 52 53
31 30 30 29 27 27 28 28 29 32 31 29 30 31 33 34 34 37 36 35 41 44 42 41 40 41 43 44 44 45 46 46 46 46 47 47 48 49
31 30 29 28 27 27 28 29 31 29 28 27 28 29 30 30 31 31 30 32 31 39 41 39 39 40 41 43 43 44 45 45 45 44 43 42 42 45
30 30 30 31 34 33 31 27 29 28 28 28 27 28 28 26 26 27 27 27 29 31 31 33 36 36 38 40 42 44 43 44 44 45 44 43 42 42
27 29 29 31 31 32 32 33 32 28 27 26 27 25 26 26 25 25 25 23 23 29 28 27 33 33 34 36 41 42 42 43 43 44 44 43 41 40
26 27 28 31 30 29 30 31 31 32 32 28 26 26 26 26 26 24 23 23 23 27 27 25 27 29 32 37 39 41 42 42 42 42 42 42 41 40
26 26 26 27 28 29 28 28 28 29 30 30 28 27 27 27 27 28 26 25 26 27 27 21 24 23 29 32 37 40 41 41 41 41 41 40 40 40
27 27 27 27 29 30 27 27 27 28 32 33 32 32 32 31 32 28 24 26 24 27 25 25 23 20 20 22 29 38 39 40 40 40 41 40 40 39
24 25 27 28 30 30 26 25 23 26 27 26 26 27 29 28 31 29 26 25 25 21 25 25 26 22 18 20 20 23 22 34 37 39 40 40 40 33
23 23 25 28 29 29 28 25 25 27 26 25 26 24 25 26 27 27 27 25 23 22 27 26 24 23 20 21 20 22 22 22 23 31 36 39 40 37
21 23 24 29 28 28 27 27 27 25 23 22 22 23 23 23 26 27 27 27 27 27 28 29 23 24 21 17 19 22 20 21 20 26 25 33 36 38
21 25 27 27 26 25 26 26 24 23 22 20 21 22 24 27 29 28 29 29 29 29 31 30 29 27 24 23 20 19 20 22 18 21 19 21 24 22
19 18 21 23 21 20 21 22 22 22 22 21 22 23 25 26 27 28 27 27 26 27 30 31 30 31 28 29 29 26 23 27 19 20 22 29 29 31
11 9 14 16 17 18 17 18 20 20 19 20 20 21 23 25 26 28 28 27 23 23 24 24 29 30 31 31 28 29 29 26 23 23 24 23 23 25
11 5 1 6 12 16 14 13 14 16 17 19 18 20 20 22 24 25 26 24 24 23 24 28 29 28 28 27 32 28 29 27 26 28 26 26 23 23
7 4 -0 1 9 16 15 14 12 12 15 16 16 16 18 20 22 22 22 22 22 22 21 20 25 28 26 24 24 31 28 29 28 27 27 26 28 23
9 5 3 3 8 14 14 13 12 9 6 11 14 14 14 17 18 20 21 17 19 22 22 21 19 22 18 14 19 19 29 26 27 26 26 23 24 30
8 9 4 4 7 9 6 8 5 5 4 4 7 11 13 14 16 18 18 17 16 20 19 17 18 21 20 18 15 11 13 27 22 15 16 15 15 25
4 8 9 6 3 3 -0 2 7 6 7 7 6 6 8 12 15 16 14 9 13 12 15 18 21 23 20 19 14 6 15 16 23 27 28 25 16 14
5 7 3 -0 -2 -1 5 1 3 3 7 7 7 8 6 9 12 12 13 12 14 14 14 18 20 20 20 20 15 14 15 12 22 18 15 26 29 29

GFSNE_sfc_temp_012.txt.gz
Temp
34 34 33 34 33 33 33 32 29 25 28 32 32 38 39 41 43 41 40 43 46 45 45 46 47 47 49 51 51 52 54 55 56 59 59 59 60 60
34 33 32 32 31 31 30 30 30 27 24 32 35 37 40 43 44 43 41 43 44 44 44 44 44 44 45 48 50 50 51 53 55 55 56 57 58 59
33 32 32 32 30 30 30 30 29 29 25 30 34 37 36 38 41 43 43 41 39 44 43 42 42 42 43 43 46 48 49 51 52 53 55 56 57 58
32 31 31 35 30 29 28 28 28 29 27 25 30 32 34 36 37 38 42 44 39 43 42 41 42 41 41 42 43 44 46 47 48 50 51 53 54 55
31 30 30 30 28 27 27 27 28 30 30 28 28 32 33 34 35 38 38 38 41 43 42 41 40 40 40 41 43 44 45 45 46 46 46 47 48 50
31 30 29 29 28 27 28 28 29 27 28 29 29 29 30 34 32 31 32 34 35 39 40 39 39 40 39 39 41 43 44 45 45 44 44 43 43 45
30 30 30 31 34 33 31 28 28 27 27 27 27 29 28 28 28 31 30 30 32 33 34 35 36 37 38 38 40 43 43 45 45 45 44 43 42 43
28 28 28 30 30 32 31 32 31 27 26 26 26 26 28 28 28 27 28 27 27 32 32 31 34 35 36 37 40 41 43 43 44 44 44 43 41 41
26 26 27 30 29 28 29 30 31 31 30 28 26 27 28 29 30 28 26 26 27 30 31 29 31 31 36 38 39 41 42 42 42 42 42 41 40 39
26 26 25 26 27 29 28 28 29 30 30 30 30 29 30 29 30 30 29 28 28 30 30 26 29 30 33 35 37 40 41 41 41 41 41 41 41 40
27 27 27 26 28 31 27 26 27 28 32 32 33 32 32 32 32 28 25 25 24 28 29 28 28 27 28 30 33 38 39 40 40 40 41 40 40 39
24 26 27 27 30 30 26 24 23 26 28 28 28 29 30 29 31 30 28 25 26 24 29 27 28 28 26 28 28 30 32 33 37 39 40 40 40 39
23 23 25 27 30 30 29 25 25 26 25 25 26 27 27 27 28 28 29 27 24 25 30 30 28 27 27 27 29 30 32 33 34 36 37 39 39 38
20 22 22 28 28 27 26 27 26 24 23 22 23 23 25 25 28 29 28 28 29 29 30 30 27 28 27 24 26 29 30 30 30 34 34 34 35 38
19 23 26 26 25 24 24 25 23 22 21 20 21 22 24 27 29 29 29 29 29 29 31 31 29 29 28 26 27 26 29 31 27 31 30 32 33 33
17 16 17 21 18 19 20 20 19 20 20 20 20 22 25 26 27 28 28 27 27 27 30 31 30 30 28 28 29 28 29 28 29 30 29 31 31 31
9 7 10 13 16 17 18 18 17 17 17 18 19 20 21 24 26 28 28 28 26 26 28 29 31 31 31 30 28 30 30 29 31 29 28 28 30 31
11 4 -1 -1 7 14 15 15 14 13 14 17 17 18 18 20 23 25 26 26 26 26 27 27 29 28 29 30 32 30 31 30 30 30 29 28 29 32
8 5 -2 -3 2 12 15 14 13 12 11 13 14 15 16 19 20 22 23 23 23 25 25 25 27 28 26 24 27 31 29 30 30 29 30 29 29 31
9 7 4 3 7 11 12 13 12 10 9 9 10 12 14 16 17 19 20 19 21 23 24 25 25 25 25 24 25 27 29 28 28 29 28 27 30 30
9 10 6 6 9 9 2 1 3 8 7 5 7 8 9 13 16 17 16 14 16 20 20 21 23 23 25 24 22 23 22 26 26 26 25 24 24 27
7 10 11 9 7 5 -1 -4 1 2 9 9 7 7 7 9 12 13 14 13 16 16 18 21 24 25 25 24 22 17 21 23 25 27 28 28 26 24
8 9 8 4 1 0 6 2 2 2 3 8 9 10 7 9 11 12 12 14 16 15 16 18 21 23 23 23 21 20 21 20 25 24 25 26 29 29

GFSNE_sfc_temp_015.txt.gz
Temp
47 46 46 46 45 45 43 41 36 31 35 41 41 47 48 48 48 49 50 47 44 45 45 46 47 47 48 49 51 52 54 55 56 58 60 60 61 61
47 45 45 45 43 43 42 41 39 35 31 39 41 43 44 46 47 48 49 46 44 43 44 44 44 45 45 46 48 50 51 53 55 56 58 58 59 60
46 43 42 43 42 42 42 41 39 38 32 37 40 42 42 42 44 47 49 49 48 44 43 42 42 42 42 44 45 47 49 51 53 54 55 56 58 59
43 42 41 42 40 41 40 38 37 38 35 32 37 37 39 42 42 43 47 50 49 46 42 41 41 40 40 42 43 44 45 47 50 51 52 53 56 58
41 40 40 39 38 39 38 37 36 36 35 32 33 37 38 41 41 42 41 45 47 45 42 41 40 41 40 40 42 44 44 44 45 46 46 48 50 52
39 39 38 37 36 36 35 33 33 31 32 31 31 33 36 39 38 38 39 44 43 46 44 41 40 40 40 40 40 42 43 44 45 45 44 43 44 46
38 38 37 35 33 34 34 32 31 30 31 31 31 32 33 34 33 34 35 40 42 43 43 45 46 46 47 43 41 40 42 44 45 44 44 43 43 44
35 35 35 33 34 32 31 31 31 30 29 30 31 31 32 34 35 33 31 31 33 45 41 42 44 43 45 47 39 39 41 43 44 44 44 44 42 42
34 33 33 34 32 33 32 32 32 31 31 30 29 31 32 34 34 33 33 33 33 40 38 37 43 41 44 45 39 38 39 42 42 42 42 41 41 40
33 33 32 32 33 31 31 31 32 33 34 33 33 33 34 35 35 34 33 34 36 39 39 32 40 37 43 44 39 38 38 40 41 41 41 41 40 40
32 33 32 31 30 31 30 29 30 32 34 33 33 32 32 33 33 33 29 29 28 34 40 35 37 36 38 39 42 39 38 40 40 41 41 41 40 40
32 32 30 29 29 30 29 28 25 29 30 31 32 33 34 34 32 33 33 28 29 30 38 33 34 36 34 40 40 41 40 35 38 40 41 41 41 48
29 30 31 28 29 29 28 28 26 28 27 29 30 32 33 33 34 34 35 33 31 31 37 35 35 36 37 37 40 41 41 40 42 43 38 39 40 42
27 29 28 28 27 27 27 26 26 26 27 27 27 28 29 30 32 33 34 34 36 35 39 37 33 33 32 32 33 40 40 41 41 43 43 41 37 39
29 28 26 26 25 26 25 24 24 25 24 24 24 26 28 30 31 32 33 34 34 35 35 36 34 35 34 31 32 35 36 39 39 40 41 41 42 43
27 28 24 24 23 23 25 26 24 23 22 23 24 26 28 29 30 32 31 31 30 31 34 34 34 33 31 33 32 31 33 34 39 39 39 39 39 38
24 26 25 24 24 25 25 24 23 23 22 22 23 24 26 28 29 31 31 31 30 31 31 33 33 33 33 33 31 33 32 33 36 35 33 36 39 41
26 24 22 21 21 22 22 22 23 21 21 22 22 24 24 26 27 29 30 30 29 30 30 31 33 31 31 32 34 33 33 33 34 34 34 33 36 40
26 25 23 22 21 23 23 22 21 21 19 20 21 22 22 25 26 27 28 28 28 30 31 32 31 31 30 28 31 31 32 34 33 32 34 33 32 35
26 25 24 24 23 23 23 22 21 21 19 19 20 20 20 22 24 25 26 25 27 29 30 33 31 30 29 28 30 30 29 32 32 31 31 33 34 30
28 27 26 25 24 24 22 20 19 19 18 17 19 19 19 21 22 23 24 22 23 27 27 28 30 28 31 31 28 29 30 27 30 31 32 31 31 32
28 27 27 26 25 24 22 21 20 21 20 20 18 19 19 20 20 21 22 22 24 24 26 29 30 31 31 30 30 27 30 30 29 28 29 29 32 30
28 28 28 26 25 23 23 22 20 20 19 19 19 19 18 18 20 21 22 22 23 23 24 25 28 30 29 29 28 29 26 28 31 31 31 27 29 30

GFSNE_sfc_temp_018.txt.gz
Temp
52 52 52 52 52 52 50 48 41 35 39 45 46 51 51 51 50 50 50 48 47 44 44 45 46 46 47 48 49 52 53 53 56 57 58 60 62 63
53 51 51 52 51 51 49 48 45 40 36 45 46 48 49 50 49 49 50 47 46 44 44 43 44 44 44 45 46 48 51 52 52 55 56 58 60 60
51 49 49 50 49 49 48 47 45 44 38 43 45 47 46 45 46 47 48 50 51 45 43 43 42 42 42 42 43 45 47 50 50 51 55 57 59 60
49 49 48 49 47 47 47 44 44 43 39 36 40 41 41 43 45 44 46 51 51 47 44 43 42 42 41 41 41 42 44 46 47 48 51 53 55 57
48 47 46 46 44 45 44 43 41 40 37 35 36 39 41 42 41 43 44 45 48 46 43 42 42 42 41 41 41 42 43 44 44 45 48 48 50 52
46 46 45 43 42 41 40 40 39 36 37 36 35 36 39 42 41 38 39 43 43 48 47 43 42 43 42 42 41 41 42 43 44 44 44 44 44 46
45 45 44 40 35 35 36 35 35 34 32 33 32 33 34 35 36 39 38 40 42 43 45 46 47 47 47 43 44 42 40 41 43 44 44 43 43 44
42 43 42 39 38 34 33 33 33 32 31 31 32 31 33 35 37 36 36 33 34 43 41 42 47 46 49 51 39 39 39 40 43 44 44 43 42 42
41 40 40 40 37 37 35 33 33 33 33 33 31 31 32 35 37 36 36 35 34 40 38 36 44 42 48 50 40 39 38 39 42 42 42 41 41 40
40 39 39 39 37 34 33 33 36 38 39 38 35 35 35 35 35 35 36 36 38 39 41 34 42 40 43 47 41 39 37 35 40 42 41 41 40 40
39 39 37 36 33 31 31 32 34 36 37 34 34 33 33 33 34 35 32 31 30 36 42 39 39 39 41 42 45 39 37 36 36 40 41 41 40 39
38 38 34 32 29 30 30 30 28 32 32 33 34 36 36 36 34 35 34 30 31 32 39 37 37 39 35 43 44 44 42 36 35 36 40 41 41 49
35 36 36 30 29 29 28 30 28 30 29 30 32 34 36 36 37 37 37 33 31 33 38 39 37 37 38 37 42 44 44 41 41 39 36 40 41 42
32 35 33 29 28 28 29 26 26 27 30 28 29 30 31 32 35 37 37 38 37 37 40 39 36 35 35 35 37 42 42 45 43 42 44 43 39 39
33 31 28 28 28 30 28 26 27 30 28 27 27 28 30 32 34 34 36 37 38 38 39 40 37 37 37 35 35 38 39 42 42 43 44 44 44 44
33 33 30 26 28 29 31 31 31 29 27 26 27 29 31 32 32 33 33 34 33 34 36 37 37 37 33 34 35 33 37 36 41 41 41 42 45 45
29 31 32 31 31 31 31 31 31 29 28 27 27 28 29 30 31 33 33 33 33 33 33 35 36 36 36 35 32 36 36 34 38 37 38 37 40 42
30 30 30 29 28 29 29 29 30 28 27 27 26 27 27 28 29 31 32 32 31 32 33 35 34 32 32 33 35 34 37 37 37 36 36 35 37 43
29 31 29 29 29 30 30 29 28 28 26 26 26 26 26 27 28 29 30 30 30 32 33 34 33 33 30 29 34 31 33 35 35 34 36 35 35 38
30 30 30 30 30 31 30 29 28 27 27 26 25 25 26 26 26 27 27 27 28 31 32 35 34 31 29 28 31 31 30 34 35 34 34 36 35 31
33 33 32 31 31 31 29 28 26 26 24 24 25 25 24 26 26 27 27 26 27 29 28 30 33 30 34 34 30 31 31 30 31 33 34 34 32 33
33 33 33 33 31 31 29 28 27 26 26 26 25 25 25 25 25 26 26 26 28 28 30 31 33 33 33 32 31 29 31 31 30 30 30 29 31 31
33 33 33 32 31 30 30 28 28 26 26 25 25 25 24 24 25 25 26 27 28 27 28 28 31 34 32 32 30 32 29 30 32 32 31 28 30 30

GFSNE_sfc_temp_024.txt.gz
Temp
43 45 42 45 45 42 42 40 35 30 33 38 38 42 42 42 44 43 42 46 46 46 46 46 47 48 48 48 48 48 48 49 51 52 54 54 55 55
45 44 42 44 43 41 40 39 40 35 32 38 40 40 41 45 45 42 42 45 45 45 45 45 46 47 47 47 46 46 46 47 48 49 51 53 54 54
43 42 43 44 39 39 39 40 38 37 33 37 40 38 37 37 39 40 42 41 42 45 45 45 45 45 44 44 44 44 44 45 46 47 49 50 52 53
43 42 42 46 40 39 38 36 35 36 34 31 34 35 34 36 37 37 41 45 42 45 45 44 43 42 41 42 43 43 43 43 43 44 45 47 48 49
42 41 41 40 36 35 34 33 33 37 33 30 30 33 34 35 35 36 37 37 42 45 45 42 41 40 40 41 43 43 43 42 42 42 43 43 44 46
42 41 41 39 34 32 33 30 32 29 30 29 29 30 31 33 33 31 32 34 35 42 42 41 41 40 39 41 42 43 42 42 41 42 42 42 41 43
40 42 40 39 38 35 34 29 28 27 27 27 27 28 28 29 28 31 29 30 33 35 32 35 37 37 36 39 43 43 41 40 40 41 42 42 41 42
36 37 38 40 37 37 37 36 33 26 26 25 26 26 27 28 29 28 27 26 26 33 32 30 36 36 36 40 41 40 40 39 39 40 40 42 40 41
35 35 37 41 34 32 34 34 33 35 35 30 28 28 27 29 29 27 26 26 26 31 31 28 32 34 39 44 41 40 39 38 38 38 39 41 40 39
35 35 33 33 28 30 28 27 29 30 32 34 28 28 29 30 29 29 28 28 29 31 32 26 31 31 34 35 41 42 39 37 37 38 40 40 39 39
36 35 35 32 31 32 27 26 26 28 35 34 33 34 35 35 35 30 25 24 23 27 29 29 29 29 29 29 31 41 39 37 36 36 40 40 38 38
32 33 33 31 32 31 24 24 22 25 26 27 28 31 32 33 36 32 28 24 24 24 29 27 29 29 24 26 28 29 27 36 36 35 37 40 36 36
29 28 29 32 31 31 30 25 24 27 27 26 28 28 30 31 31 32 32 30 27 26 33 31 27 28 27 28 32 33 31 31 34 35 34 36 38 38
28 28 28 33 32 31 30 30 31 27 22 20 24 26 26 27 30 31 33 33 32 30 34 32 26 27 26 28 29 32 32 30 31 34 33 36 36 34
27 30 32 32 32 30 33 32 26 23 20 16 21 25 26 29 31 30 31 33 34 32 36 33 28 29 26 26 26 28 30 31 31 34 34 32 33 33
29 29 27 27 25 26 24 28 26 24 22 18 18 23 26 27 27 28 28 29 29 30 33 32 31 30 26 26 25 24 24 27 32 31 34 35 34 35
25 23 23 25 25 24 24 25 25 26 22 19 17 20 24 26 26 27 29 28 27 28 29 30 32 31 28 30 22 24 24 25 30 33 30 31 31 33
23 20 19 21 23 23 20 21 22 22 22 20 18 19 19 23 24 26 28 26 25 26 27 30 30 27 27 27 31 25 29 25 26 30 30 26 27 30
21 20 21 22 26 24 22 22 20 20 20 21 18 18 18 20 22 24 25 25 24 26 27 29 29 27 25 24 30 33 26 30 27 23 25 25 23 30
26 25 25 24 24 24 23 22 20 19 18 18 15 21 17 17 17 22 22 22 23 25 26 28 27 25 22 24 26 27 32 28 29 23 22 24 26 31
28 27 27 27 27 24 22 20 20 17 16 13 17 20 20 20 19 17 20 20 21 25 24 24 27 29 29 27 25 26 26 32 29 26 31 28 24 23
29 29 28 26 27 26 23 21 19 17 22 20 18 15 19 14 16 19 15 18 21 21 22 26 29 29 29 28 26 26 26 23 29 31 31 29 23 22
30 30 30 30 29 28 25 24 21 19 18 17 18 17 13 12 20 19 20 17 22 19 20 21 26 29 27 27 27 27 22 22 24 24 22 30 31 30

GFSNE_sfc_temp_027.txt.gz
Temp
42 44 42 42 42 43 41 38 34 24 30 33 32 38 37 38 40 39 38 43 45 44 44 45 46 47 48 48 48 49 50 49 50 50 51 52 53 55
42 40 41 41 42 41 40 37 35 31 25 32 33 34 36 41 41 39 38 44 43 43 43 44 45 46 46 46 47 48 48 47 48 48 49 50 52 53
42 40 39 40 39 38 37 34 33 32 26 29 32 33 32 32 36 36 38 38 39 43 43 43 44 44 43 43 44 44 46 46 46 46 47 48 50 51
41 39 39 43 36 35 32 31 31 29 27 25 28 30 29 31 32 32 38 41 38 42 43 43 43 43 41 41 41 42 43 43 44 44 44 45 46 48
39 38 37 37 33 30 30 29 28 32 27 25 26 28 28 30 31 33 33 33 38 41 41 41 42 41 41 41 41 41 41 42 42 42 42 42 43 44
40 39 37 35 32 31 31 28 29 26 26 25 26 27 28 30 29 27 27 30 30 37 38 38 39 41 41 39 39 40 42 42 42 41 41 41 40 41
37 38 36 37 39 34 32 27 26 25 24 24 24 25 26 26 26 27 26 27 29 30 31 31 33 34 35 37 37 39 40 41 41 41 41 41 40 40
34 33 34 36 36 37 36 35 32 25 23 22 24 24 26 26 27 24 25 23 21 28 26 28 31 31 34 37 37 36 40 38 40 39 40 40 41 39
31 32 34 35 32 30 31 32 31 32 32 26 24 23 23 25 25 25 25 23 23 27 27 25 28 28 34 40 39 40 41 40 39 38 39 39 40 39
32 32 31 28 29 29 27 26 26 27 28 30 25 25 26 28 27 28 27 27 27 28 27 22 27 27 29 34 37 39 41 39 37 35 38 39 39 39
33 32 32 29 32 33 27 25 24 26 32 33 32 32 32 33 33 30 27 26 22 25 27 25 25 24 26 28 30 38 39 38 35 35 37 39 39 39
29 30 33 29 32 32 25 23 20 24 25 25 26 28 30 30 33 29 28 25 25 24 28 24 26 25 22 25 28 27 28 36 36 35 36 38 38 38
27 26 27 32 32 33 32 24 22 26 26 25 25 25 27 28 29 29 29 28 26 26 32 28 25 24 24 25 28 32 28 32 33 35 34 36 37 36
27 26 26 33 34 33 31 30 31 28 16 18 19 21 22 24 27 28 29 29 30 30 32 32 26 25 21 25 26 31 32 29 32 33 32 34 35 37
26 28 32 33 33 30 32 32 27 21 16 12 16 17 21 25 27 27 28 29 31 32 35 31 28 28 26 24 25 28 30 29 32 32 32 32 32 32
27 27 25 26 23 24 24 27 24 22 20 15 15 17 20 20 21 24 24 26 26 28 33 31 30 29 24 24 26 26 27 24 31 33 32 32 32 32
19 19 21 19 22 24 22 22 21 21 18 14 13 15 18 20 21 24 25 24 22 23 26 29 32 30 27 28 21 23 23 23 28 31 32 32 32 32
26 17 15 13 17 21 20 20 17 18 18 17 12 15 15 15 19 23 25 23 22 24 24 26 28 27 27 28 31 24 22 27 24 30 31 29 30 32
17 17 13 15 17 23 22 20 17 16 17 16 13 12 13 16 16 19 21 22 22 23 25 26 25 19 17 19 28 31 22 26 28 24 26 26 27 30
21 21 20 20 22 23 22 20 17 13 14 14 10 7 7 11 12 15 17 15 19 23 24 26 25 24 20 18 23 24 32 22 28 21 22 25 26 31
25 24 24 24 24 24 24 20 13 11 10 6 7 8 8 12 10 16 13 15 16 22 21 22 24 27 28 25 22 22 21 31 29 23 27 22 21 21
26 26 26 26 26 26 27 22 17 12 10 9 9 6 4 6 7 9 10 9 18 17 20 22 26 28 28 28 25 21 25 18 27 30 30 29 23 18
28 28 28 28 27 24 24 24 23 20 17 14 12 9 2 9 9 12 10 15 15 18 18 18 23 26 27 26 26 25 21 20 23 23 22 30 30 30

GFSNE_sfc_temp_030.txt.gz
Temp
40 39 40 40 40 40 40 38 34 26 27 30 31 35 34 35 37 37 36 41 43 43 43 44 45 45 46 47 47 48 48 49 50 51 49 50 51 52
40 39 39 38 40 40 38 38 35 32 26 29 30 31 33 38 38 37 35 42 41 42 42 43 43 44 44 45 45 45 46 47 49 50 49 49 50 51
39 38 39 38 36 35 34 34 33 33 27 27 29 29 29 29 32 33 35 34 35 40 41 42 42 42 43 43 43 43 43 44 45 47 47 48 48 49
40 39 39 42 36 35 33 31 30 29 27 24 25 26 27 28 30 29 34 38 34 39 40 40 40 41 41 41 41 41 42 42 43 44 44 45 46 47
40 37 37 37 34 32 31 29 28 32 26 24 24 26 26 28 29 30 30 30 35 38 38 38 39 39 40 41 41 40 40 41 41 42 42 42 43 44
39 38 37 35 33 31 30 28 28 25 25 24 24 25 25 28 27 25 27 29 29 34 35 35 37 38 38 39 40 39 38 40 42 42 42 40 40 41
36 37 35 36 39 33 30 27 26 25 24 23 23 24 25 25 24 26 25 26 28 29 28 29 30 30 31 36 38 39 39 38 40 41 42 41 40 40
33 32 33 36 36 36 35 34 31 24 22 20 22 22 22 23 24 23 23 22 21 27 24 26 29 28 30 31 37 40 40 40 38 39 41 40 40 39
31 31 33 35 33 31 32 31 30 31 31 24 21 21 22 24 24 23 24 23 23 27 27 24 26 25 30 35 37 38 39 39 40 39 39 38 38 38
31 31 30 29 29 29 27 26 27 27 27 29 24 24 25 26 27 28 27 27 27 28 27 22 26 25 28 30 35 37 38 38 40 39 37 36 36 38
33 32 31 29 31 34 28 26 25 25 31 32 32 32 32 32 32 29 24 23 22 25 28 26 24 22 23 25 29 36 36 35 37 38 36 36 37 38
29 30 34 30 32 32 25 24 20 24 25 25 26 27 28 28 31 27 27 23 23 22 28 26 26 24 21 23 25 25 30 34 35 36 36 36 36 38
28 27 27 33 33 33 33 24 22 26 26 25 25 24 25 26 28 28 27 25 23 23 30 29 27 26 24 23 24 28 32 32 32 34 36 36 36 37
28 28 27 33 33 33 31 31 31 27 18 17 18 20 21 22 26 27 27 27 27 27 30 30 28 26 22 20 23 29 30 32 33 32 33 34 34 34
29 29 31 32 33 31 32 32 27 21 16 11 17 17 19 23 26 25 27 27 28 29 33 32 30 28 26 24 23 25 28 30 32 32 32 32 32 32
28 30 27 26 22 23 22 27 24 22 20 17 14 15 18 19 19 22 22 24 23 24 30 29 30 29 25 25 24 24 26 25 27 31 32 32 32 32
26 21 20 20 22 23 22 23 22 20 18 13 13 14 16 18 18 21 21 22 19 20 23 27 30 30 28 27 20 22 24 24 25 29 31 31 32 32
25 24 24 21 20 22 20 20 17 17 18 17 12 14 13 13 16 20 21 18 20 21 22 25 23 24 25 26 29 23 22 26 28 28 31 30 30 31
28 27 26 20 19 21 21 20 20 17 17 18 16 11 10 13 13 16 17 18 19 20 21 24 24 17 20 14 25 31 26 27 25 22 25 27 28 30
26 24 21 20 20 22 21 20 19 15 15 15 11 6 3 9 10 11 14 9 15 20 21 23 22 22 21 20 20 24 31 21 25 26 21 28 28 30
27 26 24 23 22 23 23 19 16 16 15 10 8 7 2 9 8 10 9 11 10 20 19 19 22 25 25 26 18 20 23 29 30 27 23 25 24 23
28 28 26 26 24 23 23 23 20 20 18 12 8 5 1 4 6 6 5 11 13 13 19 21 24 26 27 26 22 17 24 17 25 29 30 28 21 19
29 28 28 27 27 26 26 24 23 23 22 19 15 11 2 6 7 5 7 16 14 13 15 18 21 24 24 25 24 21 23 18 19 20 20 29 31 30

GFSNE_sfc_temp_033.txt.gz
Temp
39 38 39 39 38 38 38 38 36 30 26 32 32 34 33 33 35 35 33 39 41 41 42 43 43 44 45 45 46 47 48 48 49 49 50 51 51 51
38 38 37 38 38 37 37 35 34 29 25 28 30 30 31 35 35 33 32 39 38 40 40 41 42 42 42 43 44 45 45 46 46 47 48 49 50 50
37 37 37 37 36 35 34 34 32 31 27 28 28 28 27 27 30 29 32 31 31 38 39 40 40 40 40 41 42 43 43 43 44 45 45 47 49 49
38 38 38 40 35 34 32 32 30 29 27 25 25 26 26 27 27 27 32 35 31 36 38 39 39 39 39 39 40 41 41 42 41 42 44 45 46 47
37 37 36 36 32 31 30 29 28 31 27 24 24 25 25 26 27 28 28 29 33 37 37 37 37 37 38 38 39 39 40 41 40 40 41 42 43 44
37 36 36 34 32 30 30 28 28 25 25 23 24 25 24 27 25 24 26 29 29 33 34 34 35 36 37 36 37 38 39 40 40 39 40 40 40 41
35 35 34 35 38 33 30 27 26 24 23 22 22 23 23 23 22 24 23 25 26 28 28 28 29 30 30 33 35 37 38 39 40 39 39 40 40 40
32 32 33 37 37 37 37 34 29 24 22 20 21 20 21 21 21 21 21 21 21 27 25 26 29 28 29 30 34 36 37 38 39 40 40 40 40 39
31 31 32 34 33 31 34 33 32 32 31 23 20 21 20 23 23 22 23 24 23 27 26 25 28 25 30 33 35 37 37 38 38 39 39 39 39 38
31 31 30 30 30 30 28 27 27 27 28 28 24 23 24 25 25 27 26 26 26 27 27 22 27 25 29 29 34 36 37 37 37 37 38 39 38 37
32 31 31 29 32 34 28 27 26 27 31 32 32 32 32 32 31 25 22 22 20 24 26 25 25 25 26 28 28 36 36 35 36 36 36 39 37 36
29 30 34 31 33 34 26 24 21 25 26 26 26 27 28 28 31 26 24 21 21 20 25 23 26 27 23 23 23 27 25 34 35 35 37 37 36 35
29 28 29 34 33 34 33 25 23 26 25 24 25 24 25 26 27 27 26 23 22 22 27 27 25 27 27 23 22 24 26 31 31 33 36 36 37 36
29 30 29 33 34 34 32 31 31 27 20 19 18 19 19 21 25 26 26 26 26 25 27 28 26 27 25 22 20 24 30 31 31 31 33 34 35 35
30 30 32 33 34 32 32 32 27 21 16 11 18 17 18 22 25 24 26 26 27 27 30 29 28 28 28 25 24 24 24 28 29 29 31 33 32 32
30 30 30 29 27 28 23 27 24 22 20 17 15 14 17 17 17 20 19 21 21 24 28 29 28 29 27 27 25 23 24 24 28 29 31 32 32 32
30 27 26 25 25 25 23 23 21 20 18 14 12 13 16 17 17 18 18 18 14 18 21 26 29 28 26 27 22 22 24 26 27 28 31 31 32 32
28 24 24 24 24 24 22 22 19 18 19 17 11 14 15 12 14 17 18 15 15 18 20 23 23 23 22 24 29 27 24 24 27 28 29 29 29 31
28 25 25 25 24 23 23 22 21 20 18 17 16 15 12 12 12 14 14 15 14 17 19 21 21 18 19 17 23 30 26 28 26 23 25 28 28 28
31 28 27 28 26 23 22 22 21 18 14 15 14 12 10 9 9 11 12 7 12 17 19 21 19 21 19 19 16 21 30 27 26 27 23 28 29 31
31 29 27 26 25 24 24 23 21 17 12 9 14 14 9 10 8 9 7 9 8 17 17 18 21 24 25 24 15 18 22 28 30 28 25 25 25 24
30 28 27 27 27 25 24 23 20 17 14 15 15 14 11 9 8 6 2 5 12 12 15 19 23 25 25 25 22 16 23 20 25 29 30 28 21 21
30 29 28 28 28 27 25 24 23 22 21 19 18 17 10 8 9 6 3 9 13 11 12 14 20 23 23 25 24 22 21 19 20 20 22 29 30 30

GFSNE_sfc_temp_036.txt.gz
Temp
38 38 37 38 38 38 37 37 37 31 33 33 33 36 35 35 35 36 34 37 40 40 40 41 42 43 43 44 45 46 46 47 48 48 48 49 50 50
38 37 37 37 37 36 36 36 37 34 30 31 33 33 34 36 35 35 33 38 37 38 39 40 40 41 42 42 43 43 44 45 46 47 47 48 48 49
38 37 37 37 36 35 34 34 32 31 29 32 31 32 31 31 32 32 33 32 33 37 38 38 39 39 40 40 40 41 41 43 44 45 45 45 46 48
37 36 37 39 35 34 32 32 32 31 29 27 28 28 29 30 30 30 32 35 34 36 37 38 38 38 38 38 38 39 40 41 41 42 43 43 44 46
37 36 36 35 33 32 31 31 30 32 29 26 26 28 28 29 29 30 30 31 33 36 36 36 36 37 37 38 38 38 38 39 39 40 41 41 41 43
36 36 35 34 33 32 31 30 30 28 27 26 25 26 27 28 28 26 26 30 29 32 34 34 35 36 36 36 36 37 37 38 39 40 40 40 39 40
35 35 34 35 38 34 32 29 28 26 25 25 24 25 25 24 24 26 24 26 27 30 30 32 32 32 33 34 34 35 35 37 38 39 40 40 39 39
33 33 33 37 37 38 37 35 30 26 25 23 23 23 23 23 25 23 23 23 22 31 28 28 32 31 33 34 34 35 36 37 38 39 39 39 40 39
32 32 32 34 34 33 35 35 33 33 32 26 23 23 22 25 25 23 24 24 25 29 28 26 31 29 33 35 35 36 37 37 38 38 38 38 38 38
32 32 31 32 31 31 30 28 29 29 29 29 26 25 25 26 26 27 26 26 27 29 30 23 30 28 32 34 34 35 36 37 37 37 37 37 37 38
33 33 32 31 33 35 29 27 28 28 32 33 33 32 32 32 32 27 23 22 20 24 29 25 28 27 30 30 32 34 35 36 36 36 36 36 37 38
32 33 35 32 34 34 29 26 23 27 27 27 28 29 30 29 31 28 26 21 21 21 28 24 26 27 25 30 30 33 32 33 35 36 35 36 36 36
32 32 32 34 35 35 34 26 25 28 26 26 26 26 27 27 28 28 28 25 21 21 28 27 25 26 27 27 29 30 32 32 33 34 34 35 36 36
30 30 31 34 33 34 33 32 31 27 24 23 21 22 22 23 26 28 28 27 27 25 28 28 24 26 25 25 26 29 31 32 32 33 33 34 34 36
30 31 33 33 32 32 33 32 30 27 23 21 20 21 22 25 27 26 27 27 27 28 30 29 27 27 26 25 27 28 26 30 32 31 31 32 32 33
30 32 32 31 30 30 29 31 30 27 25 22 20 20 20 21 21 23 21 23 22 23 28 29 29 28 25 26 27 26 28 26 30 31 31 32 33 33
26 32 30 27 27 27 27 27 27 25 22 20 18 18 19 20 21 21 21 21 18 18 21 25 28 28 28 27 26 27 27 27 30 30 30 30 32 32
29 28 26 27 26 26 26 26 26 25 24 22 18 18 18 18 19 20 20 19 17 19 20 23 23 23 26 26 30 27 28 28 30 30 30 29 30 30
30 29 28 27 26 26 26 25 25 24 24 22 21 18 17 17 16 18 18 18 18 19 21 22 21 20 18 18 26 30 26 28 28 27 28 29 29 30
30 30 30 29 28 27 26 26 25 24 20 20 17 16 14 16 15 16 17 14 16 18 20 22 21 21 19 19 20 24 29 26 28 28 27 29 31 31
30 30 30 30 30 28 27 26 25 23 20 16 17 16 13 16 14 15 15 11 12 19 18 19 22 25 25 25 19 22 26 28 29 28 28 27 27 29
29 29 30 30 29 27 26 26 25 23 19 17 16 16 16 16 15 14 12 13 17 17 18 21 23 25 25 25 25 21 25 25 28 29 29 29 26 25
23 26 28 26 28 28 28 26 25 24 23 20 19 17 16 16 16 15 13 14 16 16 17 18 20 23 23 24 24 25 24 25 25 25 26 28 30 30

GFSNE_sfc_temp_039.txt.gz
Temp
52 51 51 53 52 51 50 48 44 36 42 47 45 49 50 49 46 46 46 43 40 40 40 40 41 42 43 43 44 45 46 46 47 48 49 49 49 49
52 51 50 51 51 50 50 49 46 40 35 46 47 47 47 47 46 44 44 40 40 39 38 39 40 40 41 42 42 43 43 44 44 45 46 48 48 48
50 49 49 50 49 49 48 48 46 43 40 45 47 46 44 44 44 44 43 42 43 40 38 38 38 39 39 39 40 40 41 41 42 43 45 45 46 47
49 49 48 49 48 48 48 46 46 46 43 41 44 43 41 42 42 40 41 42 42 40 37 37 37 37 38 38 39 39 39 40 40 41 42 43 44 46
49 48 48 48 47 48 47 46 46 44 43 40 40 42 41 41 40 40 40 40 41 39 38 37 37 37 37 38 38 38 39 39 39 39 40 40 41 42
48 47 48 47 47 47 46 45 44 42 42 40 39 39 40 40 38 36 36 39 38 40 39 37 37 37 37 37 37 37 37 38 38 39 39 39 39 40
47 47 47 46 43 44 45 45 43 41 40 39 38 38 37 37 35 36 34 36 37 39 39 40 41 41 42 40 40 38 37 37 37 38 39 39 39 39
46 47 47 41 41 39 38 38 41 41 38 37 37 35 36 36 36 34 33 32 30 41 37 36 40 39 42 43 39 37 37 37 38 38 39 39 39 39
46 46 46 44 40 44 39 37 35 34 35 39 35 36 34 35 35 33 33 33 32 36 35 33 39 38 42 42 39 38 37 36 37 38 38 38 37 37
45 46 45 45 44 42 41 41 41 40 39 37 38 38 38 37 36 34 33 33 35 37 37 29 37 36 40 41 39 38 36 36 37 38 37 37 37 37
44 44 44 43 40 37 38 38 39 39 37 35 35 34 33 32 34 34 31 30 28 32 37 33 35 34 37 38 42 38 36 37 37 37 37 37 37 37
42 42 37 40 37 35 37 36 34 38 38 37 37 36 35 36 33 35 35 29 28 28 37 30 31 32 30 39 40 41 40 38 37 37 37 37 37 37
40 40 41 36 35 35 35 36 34 38 35 36 36 37 37 37 37 37 37 33 29 29 35 32 30 30 29 29 36 38 37 38 39 40 39 38 38 37
38 40 40 36 35 35 35 33 32 32 34 33 33 32 33 34 37 37 37 35 35 32 35 34 28 28 27 28 30 37 37 38 39 39 39 38 36 35
39 38 35 35 34 34 33 33 32 31 31 31 31 32 34 36 36 34 34 35 35 34 34 35 32 31 30 28 30 32 32 36 38 37 37 33 33 34
35 37 35 33 33 34 32 33 33 33 32 31 32 34 35 32 32 33 31 31 30 31 34 34 33 32 30 32 33 30 33 29 36 36 35 33 34 33
33 33 33 32 32 31 33 33 32 33 31 31 31 31 31 32 31 33 31 30 27 28 29 32 33 33 33 32 29 32 32 33 35 35 34 32 33 33
32 32 32 32 32 32 31 32 32 31 31 31 30 30 30 30 31 31 30 29 27 28 28 30 30 30 32 34 32 31 32 31 34 34 35 31 32 33
31 32 32 32 33 32 31 32 32 33 32 30 30 30 30 30 28 30 29 28 27 28 29 30 29 27 24 24 33 31 29 31 31 32 34 32 31 32
33 32 32 33 32 30 30 31 32 32 30 30 30 30 30 30 29 28 29 27 27 27 27 30 30 28 24 24 24 30 30 29 30 30 32 34 36 32
23 27 32 33 34 32 31 31 31 31 30 29 29 29 29 29 28 29 29 24 23 26 26 27 30 28 30 29 25 28 31 29 30 30 30 31 33 34
21 22 23 24 32 32 32 31 31 31 30 29 28 28 29 28 28 28 28 27 27 27 27 29 31 31 30 28 28 27 30 31 31 30 29 29 29 29
18 18 19 21 22 24 26 30 31 31 30 29 27 27 28 27 28 29 28 26 27 26 26 26 29 31 29 28 27 28 27 29 32 31 31 28 29 29

GFSNE_sfc_temp_042.txt.gz
Temp
58 58 58 59 59 59 57 55 50 44 48 54 54 57 56 55 53 52 51 48 44 42 41 41 41 42 42 43 44 44 45 46 46 47 47 48 49 50
57 57 57 58 58 57 56 56 55 50 44 52 54 55 55 55 53 51 50 46 44 43 42 41 40 40 41 41 41 42 43 43 44 44 45 46 47 48
56 55 54 56 56 56 55 55 54 53 45 51 55 55 52 50 51 51 50 49 49 45 42 41 39 39 39 39 39 40 41 41 42 43 43 44 45 47
55 56 54 56 54 54 54 53 53 53 50 47 51 52 51 51 49 47 48 50 49 46 42 40 39 39 38 38 38 39 39 40 40 41 41 42 43 45
54 55 55 55 53 54 54 52 53 53 52 48 47 50 50 50 48 48 47 47 49 45 43 41 41 40 39 38 39 39 39 39 39 39 39 40 40 41
52 53 54 54 53 53 53 52 52 50 50 48 47 47 48 49 47 44 44 46 45 48 45 42 41 41 39 39 40 39 39 39 39 39 39 38 38 39
53 54 54 52 48 49 53 52 51 49 48 46 45 45 45 45 43 45 42 43 44 46 45 46 46 46 46 44 43 41 41 39 39 39 39 39 39 39
51 53 54 48 46 41 40 40 44 47 46 45 44 43 43 44 45 42 41 39 36 47 43 42 45 44 46 47 42 40 39 39 38 38 38 39 39 38
52 52 52 54 47 50 40 37 37 37 37 45 43 43 42 44 43 40 40 39 38 42 41 38 44 42 46 48 42 40 39 39 38 37 37 38 38 37
51 51 50 51 52 50 48 48 47 47 44 43 43 45 45 45 43 41 39 39 41 43 43 35 42 40 43 46 42 41 39 38 38 38 38 38 38 37
50 51 50 50 46 41 45 45 45 45 43 39 39 37 35 34 36 39 35 35 33 38 43 39 39 38 40 41 44 41 40 39 39 38 38 37 37 37
48 49 41 44 41 37 43 43 41 43 43 44 41 38 36 39 33 37 38 33 34 33 41 36 37 37 33 40 41 42 43 40 38 38 39 38 38 41
45 46 48 39 37 36 37 41 40 43 40 36 38 43 43 43 42 41 41 39 35 35 41 37 35 35 34 34 37 39 40 41 42 42 42 40 39 39
40 44 45 39 38 36 36 37 36 35 37 35 34 36 38 39 42 43 43 42 42 38 40 39 33 33 30 29 31 37 39 41 41 40 41 41 39 38
41 39 35 34 34 35 34 34 33 36 34 33 33 34 35 39 42 41 41 41 40 40 40 39 36 36 33 30 30 33 34 39 38 39 39 39 37 34
36 39 36 34 34 34 34 34 34 36 35 34 35 35 35 35 37 38 36 37 35 36 39 39 37 36 33 34 34 32 35 33 38 37 38 37 36 34
32 34 35 36 36 35 35 34 36 36 34 35 33 34 33 33 34 36 35 35 32 32 34 37 38 38 37 35 32 33 33 35 36 35 36 35 35 33
33 33 33 34 35 37 34 33 35 34 35 36 34 33 32 33 33 34 34 33 32 34 34 36 35 34 34 37 36 34 33 33 34 35 36 34 33 34
28 30 32 33 34 36 34 34 34 34 34 34 33 33 32 32 31 32 32 32 32 34 35 36 34 31 27 25 35 31 31 33 32 32 34 34 32 33
30 28 28 30 30 33 36 34 35 36 33 34 33 32 32 32 31 30 32 31 32 34 33 35 35 34 29 26 27 32 32 30 31 31 32 35 36 32
26 26 27 26 28 28 29 34 33 33 32 32 32 32 32 32 31 32 32 31 30 32 31 32 36 30 34 33 28 30 32 30 31 30 31 32 33 34
23 23 24 25 25 25 26 28 30 32 32 32 32 32 32 32 31 31 32 30 30 31 32 35 36 35 34 30 29 30 33 33 33 30 30 29 29 28
21 21 22 22 23 23 23 23 25 28 32 33 32 32 31 30 31 32 31 31 32 32 32 32 34 35 33 31 29 31 30 32 34 34 33 29 29 30

GFSNE_sfc_temp_045.txt.gz
Temp
53 56 56 57 58 60 59 56 51 44 48 54 55 60 60 59 56 56 54 50 47 45 45 44 44 44 43 43 43 44 45 45 46 47 47 47 48 49
53 52 55 58 59 59 58 57 55 51 46 54 54 56 58 59 56 54 53 49 47 46 44 44 44 43 42 42 42 42 42 43 44 44 45 46 47 47
50 49 53 56 56 57 57 56 54 53 48 53 56 57 55 55 55 54 53 52 51 47 44 43 42 42 41 40 40 40 40 41 42 43 44 44 45 46
47 49 51 56 55 54 54 54 54 54 51 48 52 53 53 54 53 51 51 53 51 49 46 43 42 42 41 40 40 40 40 40 40 41 42 42 43 44
48 49 51 53 53 54 53 53 55 55 53 50 49 53 53 53 51 51 50 50 51 49 45 43 43 42 42 41 41 40 40 40 40 40 40 40 41 41
47 50 52 52 52 52 54 54 54 52 52 50 49 49 51 52 51 47 46 49 47 51 48 45 44 45 44 42 41 41 40 41 41 41 40 39 39 39
46 49 53 52 48 48 52 53 53 52 51 49 47 48 48 47 46 48 45 46 46 47 46 47 47 47 47 46 45 43 42 41 41 41 40 40 39 39
44 50 54 51 50 43 43 42 43 47 48 47 47 45 46 47 47 45 43 41 37 47 44 43 46 44 46 47 44 41 41 40 40 40 39 39 38 38
49 51 53 56 50 54 46 40 40 38 38 44 43 45 44 46 46 43 42 41 40 43 42 39 44 43 46 48 43 41 41 40 40 39 39 38 38 37
51 52 52 52 52 50 51 50 49 49 46 45 44 45 47 47 46 45 42 41 41 43 44 36 43 41 44 45 42 42 42 40 39 39 39 39 38 38
51 51 51 51 46 43 46 45 47 47 47 42 42 41 37 36 37 42 37 35 33 38 43 40 40 39 41 41 43 40 39 39 40 40 39 39 38 38
47 49 44 45 42 40 44 43 41 44 46 46 44 41 38 40 35 37 38 33 34 34 41 37 38 37 33 40 41 41 42 40 39 40 40 40 40 41
39 41 44 40 38 38 37 41 41 43 42 42 41 39 40 42 41 39 39 37 35 35 42 39 36 36 34 34 37 38 38 38 40 41 41 40 40 40
36 40 41 38 37 37 36 35 35 35 39 38 35 36 36 38 40 41 40 40 42 41 43 41 35 34 32 31 31 36 38 39 40 40 39 40 39 39
37 36 34 35 36 35 35 34 33 35 34 34 34 36 39 41 41 37 36 42 42 41 42 41 37 36 35 31 31 33 34 37 38 37 38 37 37 37
34 35 33 32 32 34 35 37 35 35 34 33 34 38 40 35 34 35 33 37 36 36 40 41 39 37 33 33 33 32 35 32 37 37 36 36 37 34
29 32 35 37 37 38 39 39 39 36 33 35 34 35 35 35 34 35 34 35 33 33 34 38 40 39 38 35 32 34 33 34 36 35 34 33 35 33
31 32 31 31 31 32 33 33 36 34 34 34 35 36 35 34 33 33 34 32 32 33 34 37 36 35 35 36 37 33 34 33 34 34 35 33 33 33
30 30 28 28 28 30 31 31 28 34 34 34 34 35 34 34 32 32 32 31 32 33 35 37 35 32 28 26 34 33 32 32 32 32 34 33 32 32
29 28 27 27 26 26 28 29 30 29 36 35 34 34 34 33 32 32 32 31 32 33 34 36 35 34 31 28 27 32 32 31 30 30 31 33 34 33
27 26 26 27 25 25 25 26 26 26 29 33 33 33 32 33 32 32 32 31 32 33 32 33 36 31 35 34 28 30 32 32 31 31 30 30 30 33
24 23 24 24 23 23 24 24 24 24 26 26 32 32 32 33 32 32 31 30 31 32 33 36 37 36 34 31 29 31 31 31 31 30 30 29 28 26
21 21 21 21 22 22 22 22 22 23 22 25 27 29 32 32 33 32 31 31 32 32 33 33 35 35 33 33 31 31 32 32 34 30 31 29 29 29

GFSNE_sfc_temp_048.txt.gz
Temp
51 50 49 51 51 52 51 49 44 36 39 45 45 50 49 48 46 43 44 49 47 45 45 46 47 47 46 46 45 45 45 45 45 46 47 48 48 49
50 49 49 50 50 51 49 49 46 41 36 43 45 46 48 53 50 46 46 50 48 46 45 45 46 46 45 45 44 44 43 43 44 44 45 46 46 46
47 46 46 48 49 48 47 46 45 45 40 41 44 45 44 45 47 45 46 43 42 47 45 45 44 43 43 43 43 43 42 42 42 43 44 44 45 45
45 45 47 51 46 48 46 45 45 44 41 38 40 41 42 43 43 42 47 50 43 48 46 45 44 43 42 42 42 42 42 41 41 41 42 42 43 44
45 46 46 47 47 47 48 45 45 49 44 39 37 41 40 41 41 42 41 40 46 49 46 44 45 44 43 43 42 42 42 42 41 41 41 41 41 42
47 46 46 46 47 47 47 44 46 44 45 41 40 38 38 40 39 37 35 37 38 48 46 44 44 45 44 43 42 43 43 42 42 41 41 40 40 40
45 47 46 46 46 45 47 43 41 41 40 38 36 35 35 35 35 36 36 36 35 36 35 36 36 36 37 42 44 44 43 42 42 42 41 41 39 39
42 45 45 45 46 42 42 43 44 42 39 38 39 38 35 35 35 35 34 31 29 35 33 32 35 34 37 36 43 42 41 41 41 41 41 40 40 39
42 42 45 51 45 46 44 41 39 39 40 41 37 38 38 38 34 35 34 32 30 32 32 29 31 32 36 43 42 42 41 41 41 40 40 39 39 38
42 43 42 43 43 42 40 38 40 41 41 40 37 38 39 39 36 36 36 34 31 32 33 28 31 30 33 34 41 42 41 40 39 39 40 39 39 39
44 42 42 41 41 40 38 36 38 40 44 43 41 40 40 39 37 32 28 30 25 30 32 30 31 29 30 29 32 41 40 39 39 40 39 39 39 39
35 39 38 39 38 38 34 33 32 33 35 35 38 36 36 35 36 34 31 29 27 27 33 29 29 27 22 29 29 30 30 36 38 39 39 40 39 37
30 31 32 36 36 35 35 32 32 35 34 34 34 35 34 36 36 33 34 32 29 29 34 32 29 27 23 25 25 27 28 29 30 34 38 39 39 38
29 30 31 34 34 34 33 34 35 34 33 33 33 33 33 34 35 35 35 33 34 32 36 35 27 26 21 23 24 25 27 30 29 30 30 36 37 37
30 31 32 32 32 32 34 34 32 31 31 32 31 32 34 35 35 34 36 36 36 33 39 37 28 29 25 25 25 26 26 29 29 27 31 28 30 32
28 27 27 29 30 32 32 34 32 32 31 31 32 34 32 31 33 33 31 31 30 29 35 35 33 31 25 26 27 26 27 26 28 28 27 29 31 31
24 25 27 27 27 27 28 29 30 29 29 32 32 32 30 28 33 33 31 30 29 26 28 30 33 32 29 30 24 27 27 28 29 26 28 28 32 27
24 23 21 21 22 24 24 25 25 26 27 26 31 31 29 31 32 32 31 29 28 28 29 29 29 27 27 29 33 28 28 26 24 30 29 29 29 28
20 21 18 19 21 23 23 23 23 25 25 25 29 29 29 28 28 30 30 30 29 29 30 30 28 22 17 16 26 34 23 25 29 24 25 28 28 30
23 21 19 20 21 21 21 21 22 22 22 22 24 28 24 27 25 29 29 29 28 29 29 30 27 27 22 18 15 21 33 23 25 27 23 27 31 31
21 21 19 19 19 19 18 19 20 20 20 21 21 24 28 29 26 26 28 28 28 29 27 28 28 28 27 23 13 17 23 33 29 23 22 21 24 26
17 18 18 18 17 17 17 17 18 18 18 20 20 21 23 26 26 23 27 29 28 28 28 28 29 29 25 25 21 15 24 27 29 31 30 27 20 17
14 16 15 16 16 16 17 15 16 16 17 18 19 19 19 20 22 25 27 29 29 27 29 26 28 27 27 27 23 20 24 26 28 26 25 30 30 30

GFSNE_sfc_temp_051.txt.gz
Temp
46 47 48 49 49 49 49 46 41 34 35 40 41 46 45 44 44 44 42 46 46 46 46 47 48 48 49 48 48 47 47 47 46 46 46 47 48 49
48 47 47 47 48 48 47 47 43 38 36 39 41 42 45 49 46 44 42 46 46 45 45 45 46 47 48 47 47 46 46 46 45 45 45 45 47 47
46 46 46 47 46 46 44 43 41 40 36 38 40 42 40 41 44 41 43 43 42 45 44 44 45 45 45 45 45 45 45 45 45 44 44 44 45 46
45 46 47 49 45 43 42 42 40 43 40 40 37 38 40 41 40 39 44 47 42 45 46 45 45 44 44 43 43 43 43 44 44 43 43 43 43 44
46 45 46 45 43 45 45 45 45 47 44 42 41 38 41 39 39 38 40 39 43 47 45 44 44 44 44 42 42 42 42 43 42 42 42 42 42 42
45 45 45 44 44 44 42 41 41 37 38 40 39 40 37 42 39 39 36 36 36 45 46 43 42 44 44 43 43 43 43 43 43 42 41 40 40 41
45 45 44 45 44 42 43 41 37 37 37 36 37 33 34 35 36 38 35 34 36 33 35 34 34 34 35 40 42 43 43 43 43 43 42 41 40 40
41 44 44 43 42 41 41 40 39 36 34 33 36 35 37 31 32 32 32 33 31 35 33 33 33 32 33 33 40 41 41 42 41 42 42 42 40 39
41 41 40 45 41 39 38 38 37 38 37 34 33 34 35 35 32 32 34 35 32 36 31 28 29 30 32 40 41 42 41 41 40 40 40 40 39 39
38 38 36 35 36 37 35 33 34 36 37 38 33 34 35 37 36 37 36 36 33 31 31 26 27 28 31 31 38 41 41 40 40 40 40 39 39 39
37 36 36 34 37 37 33 30 31 32 38 39 39 38 37 38 37 35 31 31 29 30 31 29 30 29 28 28 31 39 39 38 39 39 39 39 39 38
31 34 35 34 35 35 30 28 26 28 29 31 33 34 35 35 36 35 34 29 29 27 29 27 28 26 22 27 29 29 28 34 37 37 38 38 38 35
28 28 28 33 34 34 34 29 29 31 30 30 32 33 34 35 36 34 34 33 31 29 30 29 26 25 24 23 24 26 24 26 27 31 35 37 37 37
27 27 27 32 32 32 31 33 34 32 30 29 28 29 31 32 34 36 33 33 34 34 34 32 24 25 22 20 20 24 23 25 24 27 29 32 35 35
27 28 30 30 30 29 32 32 29 29 28 26 27 29 31 32 35 34 33 32 32 33 35 34 29 30 27 24 22 23 22 24 25 24 24 25 26 28
26 25 25 26 25 25 26 28 27 26 25 24 24 25 31 33 32 33 32 31 29 28 32 33 32 31 24 26 25 22 23 22 26 24 27 21 25 32
23 20 22 22 24 24 24 24 24 23 22 22 22 24 26 31 30 30 30 31 29 24 26 30 32 31 30 30 23 24 25 23 24 27 24 20 28 31
21 18 14 12 18 21 20 19 20 20 21 21 21 22 23 27 29 31 31 30 28 26 25 28 29 26 26 29 32 26 22 24 23 26 26 20 26 30
18 17 11 10 14 20 19 18 17 18 20 20 19 20 22 22 28 30 29 30 29 28 26 29 27 22 22 18 25 33 23 24 23 22 22 21 26 29
21 18 14 14 17 17 17 16 16 17 17 17 17 19 20 21 20 27 28 28 27 27 27 29 27 28 24 19 16 19 32 22 22 19 19 22 28 31
19 18 13 12 14 15 8 8 8 13 13 12 15 17 18 18 18 20 26 26 28 28 27 27 29 29 28 24 12 13 18 31 29 23 19 18 19 22
13 15 15 13 8 9 4 5 10 11 13 12 14 14 16 17 17 17 20 25 26 27 29 30 30 29 27 24 17 9 18 21 29 31 30 27 18 15
8 10 8 2 2 3 13 9 8 11 10 11 11 11 13 14 16 17 17 20 22 27 28 27 28 28 27 26 21 17 20 20 26 26 24 30 30 30

GFSNE_sfc_temp_054.txt.gz
Temp
48 48 48 48 47 49 48 47 42 37 39 40 40 44 43 43 43 44 42 47 47 47 47 48 50 50 50 50 50 50 49 49 48 48 47 47 47 48
47 47 47 47 47 47 47 46 45 42 38 38 40 41 43 47 45 42 42 46 46 45 45 46 47 48 49 49 49 49 49 48 48 47 47 47 47 47
46 46 46 47 46 46 45 44 43 41 40 40 38 40 39 40 43 41 43 41 42 45 45 45 45 45 46 46 47 47 47 47 47 47 47 47 47 46
45 46 46 47 46 45 44 41 39 39 37 38 37 36 37 40 40 39 44 45 43 45 45 45 45 44 44 44 44 44 45 45 45 45 45 46 45 46
46 45 46 45 44 43 41 40 41 44 42 40 39 38 36 38 40 39 41 40 45 48 45 44 44 44 44 44 43 43 43 43 43 43 43 43 44 44
46 45 45 45 42 41 40 37 39 36 36 36 37 37 34 36 35 36 36 34 37 45 45 44 44 45 44 43 43 43 43 43 43 43 42 41 41 41
44 45 45 44 43 42 40 37 35 33 34 34 33 33 31 30 31 33 32 37 35 34 36 36 40 37 38 42 42 43 43 43 43 43 42 42 41 40
42 43 43 43 42 39 39 38 36 31 30 28 29 30 33 32 31 33 33 28 32 32 31 33 35 36 38 35 39 40 41 41 42 42 42 41 41 40
40 42 41 41 37 35 35 35 34 36 36 31 29 30 31 31 33 31 30 31 32 35 30 34 33 33 36 39 40 40 41 41 40 40 40 39 39 38
36 35 34 33 34 33 31 29 30 31 32 34 31 33 33 34 34 34 33 33 35 35 34 30 28 29 33 31 38 40 40 40 40 39 39 39 38 38
35 34 33 31 35 36 30 28 28 29 35 36 36 36 36 36 36 33 31 30 29 34 29 31 27 29 29 29 31 39 39 39 38 38 38 38 38 38
30 31 33 32 33 34 29 26 26 27 28 30 32 31 33 32 35 34 32 29 29 25 29 29 26 28 23 26 27 28 28 35 37 37 38 38 37 32
28 28 29 32 32 33 33 28 29 29 29 28 28 29 30 31 32 32 33 32 30 31 30 31 27 26 26 23 23 25 24 25 26 29 34 36 36 36
28 28 28 31 31 31 30 31 31 27 25 25 24 25 26 26 28 32 33 34 34 33 35 32 28 26 22 20 20 24 24 23 23 26 25 31 33 34
28 28 29 30 30 29 30 30 26 23 22 20 22 22 24 26 27 31 33 35 34 33 34 32 28 28 26 22 22 23 23 25 23 22 21 22 22 20
27 26 25 26 25 26 26 26 25 23 21 21 20 22 24 24 24 29 31 32 30 31 31 32 30 31 25 26 26 22 23 22 22 22 23 19 21 20
23 21 21 23 22 23 22 22 22 21 19 19 19 19 20 21 22 25 29 29 27 26 28 29 31 31 30 30 22 24 23 22 22 24 24 18 20 22
23 20 16 15 17 19 18 18 17 17 18 18 16 17 17 18 19 23 24 29 28 29 29 27 29 27 27 28 32 25 22 21 23 25 24 17 21 26
20 18 14 12 14 18 17 16 15 15 17 15 14 13 16 17 17 19 20 24 28 28 28 28 28 27 19 17 25 33 23 23 21 20 23 20 18 27
21 18 16 16 17 16 16 14 14 12 11 13 11 11 13 13 15 16 18 17 24 28 28 28 28 27 23 19 18 20 31 20 18 20 20 20 23 30
18 18 16 15 14 14 9 6 1 4 6 2 6 11 8 10 12 16 16 16 18 26 27 26 29 31 27 23 15 14 17 30 28 25 21 20 18 22
15 16 15 13 10 9 3 2 1 -3 5 4 7 1 5 9 10 13 14 13 16 19 22 28 30 28 26 25 19 8 16 16 27 31 30 28 20 15
12 13 10 6 2 2 6 2 1 3 8 6 7 7 7 8 11 11 12 14 16 17 19 25 28 27 27 26 20 16 18 15 22 25 25 30 30 30

GFSNE_sfc_temp_057.txt.gz
Temp
50 50 49 48 49 49 48 47 43 37 39 40 40 43 42 42 44 42 42 46 47 47 48 49 51 52 52 52 52 52 52 51 51 50 50 49 49 49
49 48 47 47 47 47 46 46 45 42 37 41 44 40 42 45 44 42 41 46 46 46 45 46 48 49 50 50 50 50 50 51 50 50 49 49 49 49
47 47 46 47 46 45 45 44 43 42 38 40 40 40 38 39 42 41 41 39 40 44 45 45 45 46 47 47 48 48 49 49 49 49 49 49 49 49
46 46 46 47 45 45 44 43 42 41 36 34 36 35 36 38 38 37 43 45 40 44 44 44 45 44 45 45 45 45 45 46 47 47 47 47 47 48
47 46 46 46 44 43 43 42 41 41 36 34 36 35 35 35 36 36 37 38 41 46 44 44 44 44 45 44 44 44 44 44 44 44 44 44 44 45
46 46 46 45 44 43 42 40 37 34 33 32 32 32 32 34 33 32 35 34 36 42 44 43 44 44 44 44 44 44 44 44 43 43 42 41 41 42
45 45 45 45 43 42 41 36 32 30 30 29 28 28 29 28 29 31 31 34 35 33 36 37 36 38 39 42 43 42 42 42 42 43 43 42 41 41
43 43 44 42 39 38 38 38 35 30 27 26 27 27 27 28 28 28 31 31 29 34 31 33 32 33 34 33 40 41 41 41 42 42 42 42 41 40
42 41 41 40 37 36 34 34 34 35 35 28 25 26 26 27 29 29 28 27 27 32 32 31 35 32 35 38 39 39 37 40 41 41 41 40 39 38
38 38 36 34 34 32 30 29 30 30 31 32 28 28 28 30 30 31 29 30 32 34 33 28 34 31 30 31 36 35 37 40 40 40 39 39 38 38
33 32 31 30 35 35 30 29 28 30 34 35 35 35 35 35 35 31 29 28 26 29 31 31 31 28 28 27 31 38 39 39 39 39 39 38 38 38
30 31 33 31 33 33 28 27 26 27 27 28 29 30 32 31 34 31 29 27 27 26 31 28 29 27 26 27 28 30 32 38 38 38 38 38 38 31
28 28 28 31 32 32 32 28 27 26 26 25 26 26 27 28 28 29 29 29 27 28 32 29 28 27 28 25 25 27 28 29 28 30 35 36 36 34
28 27 27 31 31 31 29 30 29 26 22 21 22 23 23 23 25 26 27 28 31 31 35 33 30 28 26 23 24 24 24 26 22 26 25 31 33 34
28 29 29 30 30 29 29 28 25 23 20 18 19 20 21 23 25 24 26 27 31 34 35 33 31 30 28 24 22 23 25 25 23 22 20 21 21 19
27 27 26 27 26 25 25 25 23 22 20 18 18 19 20 20 20 22 21 23 24 31 32 31 32 30 27 27 27 22 25 22 23 24 22 18 19 16
25 24 22 22 22 22 22 21 21 20 18 18 17 17 17 17 18 20 20 21 20 25 27 28 30 31 30 29 24 25 26 22 24 25 23 17 16 18
24 20 17 16 18 19 18 18 18 17 17 17 15 15 13 14 15 17 19 18 19 20 27 31 29 28 27 27 31 27 23 22 23 24 23 17 18 18
20 18 15 14 16 18 17 16 15 15 15 14 13 12 12 13 11 13 15 17 17 20 20 29 27 26 22 17 26 33 24 24 21 19 22 21 16 20
21 18 16 17 17 16 16 14 14 12 10 10 10 6 7 8 8 9 12 13 15 17 18 28 28 28 25 21 21 22 32 22 20 16 17 20 22 28
18 18 17 15 15 15 12 9 7 6 4 -2 1 1 -1 5 6 8 10 11 13 16 16 19 24 30 29 25 17 18 16 30 26 22 18 18 17 19
16 16 15 14 12 11 8 4 4 0 -1 1 -4 -6 -4 1 5 7 8 7 12 14 17 19 23 28 26 24 21 15 18 16 25 31 30 27 19 15
14 14 12 10 8 7 8 3 0 -3 -1 0 2 4 -5 3 7 8 7 8 11 13 15 16 20 26 26 26 23 20 19 17 20 23 21 30 31 31

GFSNE_sfc_temp_060.txt.gz
Temp
51 51 52 50 50 50 49 48 45 40 40 44 45 46 47 46 46 45 44 46 46 47 47 48 51 52 53 54 54 55 55 55 55 54 53 52 52 51
50 50 49 48 47 48 47 47 46 43 40 44 43 46 46 46 46 45 44 47 46 45 45 46 47 48 50 51 52 52 53 53 53 51 52 51 51 51
47 48 47 46 46 46 46 45 44 43 39 42 42 41 41 41 43 43 43 42 42 44 44 45 45 45 46 47 48 49 50 50 50 48 50 49 51 51
48 48 47 48 46 46 45 43 43 42 40 37 39 39 38 40 40 39 42 45 42 44 44 44 44 44 44 44 44 45 46 47 47 48 46 46 49 50
48 48 47 46 44 44 43 42 43 44 40 38 38 37 37 37 37 38 38 39 42 45 44 43 44 44 44 44 44 44 45 45 45 44 42 45 46 47
48 48 47 46 45 43 43 41 40 37 36 35 33 33 34 36 34 33 34 36 36 41 42 42 42 43 44 44 44 44 44 44 45 44 42 40 40 42
46 46 46 45 43 43 42 38 37 35 34 33 30 30 30 30 31 32 31 33 34 36 36 37 38 39 39 40 42 42 43 43 44 42 39 39 39 41
43 43 43 41 40 39 38 37 37 33 32 29 29 28 29 29 30 29 29 29 27 34 32 32 35 35 37 38 39 39 41 42 41 39 39 38 40 41
43 41 40 40 37 36 35 35 35 35 34 30 28 28 28 30 28 28 28 28 28 33 32 29 35 33 37 39 39 40 39 40 40 38 37 40 40 39
41 39 36 35 35 34 33 32 32 32 32 32 29 30 30 30 30 32 30 30 32 34 33 27 34 33 36 37 37 39 39 39 38 36 38 40 39 38
35 35 34 34 35 35 32 31 30 31 34 34 34 34 34 34 33 31 28 27 26 30 34 30 32 32 34 34 36 36 37 37 36 38 40 39 38 38
32 33 33 33 33 33 30 29 28 28 28 28 29 29 30 30 32 30 29 24 25 25 32 28 32 31 30 33 32 33 35 37 38 39 39 39 38 38
30 29 30 32 33 33 31 29 28 28 26 26 26 26 27 27 28 28 28 26 23 23 30 31 31 31 29 30 30 31 31 33 35 37 37 37 37 37
29 27 28 32 32 31 30 30 28 26 24 23 22 23 23 23 25 26 27 27 28 27 29 29 28 31 29 29 27 31 31 32 32 34 33 34 34 35
28 29 31 31 30 29 29 27 25 23 21 19 19 20 21 22 24 24 25 26 26 28 30 31 31 32 31 29 27 27 30 32 31 31 30 30 31 30
27 27 27 27 26 26 25 25 23 22 20 19 18 20 20 19 19 22 20 21 21 24 28 31 33 32 30 30 29 27 29 29 30 30 30 29 29 28
25 24 23 23 23 23 22 22 21 20 18 18 17 17 16 16 17 19 18 18 17 18 20 25 31 32 32 31 27 28 29 28 30 30 28 27 28 29
24 20 18 18 19 20 18 18 18 18 17 16 15 15 14 13 14 15 16 15 15 17 19 22 23 27 29 30 32 28 28 29 30 29 29 26 28 30
20 19 17 16 17 19 18 17 15 16 16 14 13 13 12 11 11 11 12 12 13 15 17 20 22 22 25 22 30 33 29 28 28 27 28 26 27 28
20 18 16 17 17 17 16 15 15 14 12 11 10 10 8 8 8 8 9 8 10 12 14 20 21 21 18 24 25 28 33 28 27 26 26 26 28 28
19 19 17 16 16 15 14 12 10 9 8 6 6 6 5 5 6 7 7 7 7 11 12 15 20 22 23 25 25 25 28 30 29 28 25 25 26 26
17 17 16 15 13 13 11 9 7 7 6 6 6 3 1 1 3 4 6 6 8 9 12 17 21 21 21 24 25 23 25 25 28 31 30 30 26 24
14 14 13 11 10 9 10 7 5 3 3 3 2 3 -2 1 5 7 7 7 8 8 10 13 17 19 20 22 26 25 24 23 26 26 28 30 30 31

GFSNE_sfc_temp_063.txt.gz
Temp
60 61 60 60 59 58 55 59 53 46 49 53 58 57 58 53 54 51 57 51 47 47 47 48 49 51 51 52 53 54 55 56 56 57 57 56 55 54
59 58 57 57 56 54 57 56 54 53 51 55 51 53 53 56 50 54 56 47 48 45 45 46 46 48 49 49 49 50 51 53 53 54 55 55 54 53
55 54 55 55 53 53 54 55 55 50 48 47 50 49 49 47 50 55 54 54 55 46 44 44 44 45 45 46 46 47 48 48 50 51 52 53 53 52
52 51 53 51 51 53 50 48 52 47 44 43 46 46 46 52 52 51 53 54 53 49 45 44 44 44 44 44 44 44 45 45 46 47 48 50 51 51
52 51 52 51 50 47 47 45 47 48 51 45 47 48 45 51 50 50 49 50 51 47 44 44 44 44 43 43 43 44 44 44 44 44 44 45 46 48
52 51 51 49 47 46 46 44 49 42 41 44 38 40 45 49 47 45 45 47 46 48 46 43 42 43 42 42 42 42 42 43 43 44 43 43 43 44
49 49 48 48 45 45 45 41 41 39 37 37 37 39 41 44 43 45 41 43 45 45 45 45 46 45 45 44 44 43 42 41 41 42 43 43 42 40
46 46 46 43 41 40 39 39 42 38 35 36 37 37 40 42 42 40 39 38 38 46 42 42 45 43 45 47 42 40 40 40 40 41 42 41 37 36
45 43 41 40 38 37 35 35 35 35 37 39 37 37 38 40 38 37 37 37 37 41 40 37 43 41 45 46 42 40 40 39 40 40 40 38 37 36
43 41 37 36 36 35 34 34 34 35 35 35 37 39 38 39 38 38 37 37 39 40 41 34 42 40 44 46 42 40 39 38 39 39 39 37 36 37
37 37 36 35 35 36 35 33 33 33 34 33 33 33 33 33 33 36 34 33 32 37 40 36 38 38 41 42 45 40 37 37 38 38 36 36 37 39
33 33 34 33 33 33 33 34 32 32 32 34 34 33 32 33 30 33 33 29 31 31 39 34 37 37 33 42 44 45 44 39 37 38 38 39 39 44
31 30 32 33 33 33 33 34 32 33 29 30 31 31 31 31 31 31 31 30 28 30 36 33 33 33 32 34 40 42 42 41 40 40 38 39 38 39
31 31 31 33 33 31 32 29 28 28 28 28 27 27 27 28 28 29 30 30 32 30 33 31 27 29 28 30 33 41 42 41 42 43 42 40 35 36
31 32 32 32 31 30 28 27 27 27 26 25 25 26 26 27 28 27 28 30 30 31 32 32 30 31 31 30 33 36 35 40 40 40 40 39 39 39
30 31 30 29 29 28 28 27 27 26 26 25 24 25 26 25 23 25 24 25 24 27 33 32 31 30 28 32 33 33 35 33 39 40 39 38 39 37
28 28 27 26 27 26 26 26 26 26 24 24 23 22 22 22 22 24 23 23 21 23 25 30 32 32 32 31 32 34 33 33 35 37 36 35 36 36
27 25 23 24 25 26 25 25 24 22 22 19 19 19 19 19 19 21 21 20 19 21 23 26 27 27 31 35 35 33 34 34 35 35 36 33 34 37
24 23 22 22 23 23 22 21 19 20 18 18 18 18 18 18 16 17 18 18 18 20 22 24 24 24 23 22 35 34 33 34 35 34 36 35 33 36
25 24 22 22 22 21 20 20 20 19 18 17 16 16 15 15 14 15 16 15 16 18 19 24 25 25 21 20 22 29 33 33 33 34 35 37 36 30
24 24 23 22 22 21 19 18 17 16 15 14 14 14 14 14 13 14 15 13 13 16 17 19 24 23 25 25 23 26 31 32 34 35 35 34 33 34
22 21 21 20 19 18 17 15 15 15 15 14 14 13 13 13 12 12 13 13 15 16 17 21 23 25 24 22 22 25 31 32 32 31 32 33 33 30
17 18 17 16 16 15 15 14 13 13 12 12 12 12 11 11 12 13 13 14 14 14 15 16 20 22 22 21 21 24 28 28 33 31 32 31 31 31

GFSNE_sfc_temp_066.txt.gz
Temp
68 68 65 61 60 61 62 63 59 53 55 63 64 64 66 65 59 62 61 53 49 48 48 48 50 51 51 51 52 53 53 54 55 55 56 56 57 57
68 65 66 65 62 62 61 60 59 56 53 64 63 66 64 59 55 59 60 50 49 47 46 46 47 48 48 49 49 50 50 51 51 52 53 53 54 55
64 60 59 59 57 57 56 57 57 57 53 57 60 60 55 53 53 56 58 57 61 47 46 45 45 45 45 45 46 46 47 48 48 49 50 50 52 53
59 57 55 55 53 54 54 52 53 55 59 53 52 51 49 54 58 57 56 60 60 51 47 45 44 44 43 43 44 44 44 44 45 45 46 47 48 49
57 56 54 53 53 53 51 51 52 53 50 46 52 49 51 48 49 51 53 56 59 51 46 44 44 44 44 43 43 43 43 43 42 42 43 43 44 45
56 56 55 54 52 51 49 49 47 44 46 44 43 42 45 48 47 47 50 55 54 57 51 46 44 46 44 43 42 43 42 42 42 42 41 41 41 42
57 56 55 52 48 50 48 46 45 43 41 42 41 39 41 42 43 49 50 50 52 53 51 51 51 51 50 46 46 44 43 42 42 41 41 41 40 41
55 53 51 46 44 42 42 42 44 42 40 37 37 37 40 44 47 47 47 45 44 55 48 47 50 48 51 51 45 42 42 41 41 41 41 40 41 39
51 48 44 45 43 42 37 37 36 37 39 42 38 41 43 46 46 44 44 44 44 47 46 42 48 46 50 51 44 42 41 41 40 40 39 39 40 38
47 46 44 40 40 38 37 35 36 35 36 38 40 41 41 43 44 44 43 41 42 44 46 38 46 45 48 49 44 43 42 40 40 39 39 39 39 37
39 40 39 35 35 37 33 32 32 32 34 34 34 34 33 33 35 40 37 37 36 41 46 41 43 43 45 44 47 43 41 40 39 38 38 38 38 36
34 35 35 34 33 33 32 31 30 32 33 33 33 33 33 35 31 35 38 33 35 35 45 39 40 40 37 45 46 47 47 41 39 39 38 38 37 42
32 31 32 33 33 32 34 34 33 34 31 34 35 37 39 37 38 38 37 36 33 34 41 37 37 36 35 36 41 43 44 44 43 43 38 38 39 40
30 30 31 32 31 31 31 30 30 31 31 33 34 33 34 35 36 37 36 36 37 35 37 34 30 32 32 31 32 39 43 45 44 41 44 41 38 38
30 31 31 31 31 29 28 27 28 30 30 30 30 31 33 35 34 32 33 34 34 34 34 34 32 33 33 31 32 34 38 42 43 41 42 41 39 39
30 30 31 30 31 28 27 29 31 30 29 30 30 32 32 30 29 30 28 29 28 30 35 35 33 32 30 33 34 33 38 36 42 42 40 40 41 40
29 30 29 29 31 32 31 30 31 31 30 29 27 26 26 27 28 28 27 27 25 26 28 32 35 35 34 33 31 34 36 37 39 39 37 36 38 39
30 29 29 30 30 30 30 30 30 26 28 26 25 25 24 24 25 26 26 25 24 26 27 29 30 30 32 35 36 35 37 37 39 38 38 33 36 39
30 29 28 28 27 28 27 27 26 25 24 25 24 23 23 23 22 23 23 24 23 25 27 29 28 26 24 23 33 35 31 34 37 35 37 35 35 38
29 28 26 26 26 26 26 26 25 24 23 22 21 21 20 21 21 21 22 21 22 23 23 26 28 28 25 22 21 28 31 29 30 33 34 38 38 31
28 26 26 25 25 25 23 22 21 21 19 19 20 20 19 19 19 20 20 18 18 20 21 23 27 26 27 28 23 26 32 34 32 30 36 34 35 36
25 24 23 23 22 21 21 20 20 20 19 19 18 18 18 18 17 17 18 18 19 20 21 24 26 27 26 24 22 24 28 32 33 32 32 32 35 31
21 22 21 20 20 20 20 19 17 17 17 16 16 16 16 15 16 17 17 17 17 17 18 19 22 24 24 24 23 24 25 26 31 32 33 32 32 32

GFSNE_sfc_temp_069.txt.gz
Temp
68 68 69 70 70 68 66 61 56 52 56 62 62 68 68 70 62 61 62 51 50 49 49 50 51 52 52 52 52 52 53 53 54 54 55 55 55 56
70 69 69 70 69 67 64 61 61 56 52 62 63 62 63 66 59 62 63 53 49 48 47 47 48 49 49 49 49 50 50 51 51 52 52 52 53 54
70 70 68 67 64 62 61 59 56 55 52 55 52 58 58 61 57 59 59 59 59 48 47 46 46 46 46 46 46 46 47 48 48 48 49 50 50 51
70 70 66 64 63 61 56 55 56 55 54 52 52 53 56 57 53 54 59 62 61 52 48 46 46 44 44 44 44 44 44 44 44 45 45 46 46 47
70 70 65 61 56 56 55 55 54 54 54 52 49 48 52 49 50 54 52 53 59 51 45 45 44 45 44 44 43 43 43 43 43 43 43 43 43 44
70 69 64 60 57 56 54 54 53 51 50 48 45 45 44 44 46 45 45 51 54 59 54 49 48 46 44 44 43 43 43 43 43 43 42 41 40 41
67 65 61 60 54 55 55 53 51 48 46 44 41 39 40 41 41 44 41 45 51 55 53 53 53 52 51 45 44 44 43 43 43 43 42 41 40 40
64 62 62 52 50 45 45 45 48 46 45 44 42 41 38 40 39 39 40 41 43 54 50 49 52 49 50 50 47 44 43 43 42 42 42 41 40 39
58 61 57 53 47 49 40 38 35 38 38 43 39 37 36 39 40 39 41 42 42 49 48 43 48 46 50 52 45 43 43 42 41 41 41 40 39 38
64 60 53 46 45 41 38 34 33 33 34 35 34 33 34 37 41 42 43 43 43 44 45 37 45 43 48 49 45 44 43 42 41 41 40 39 38 39
41 41 41 38 38 39 34 32 32 31 33 33 33 32 32 32 34 40 37 37 35 40 45 41 43 42 44 44 46 44 42 42 41 41 40 39 38 38
34 35 35 36 35 37 35 33 29 28 29 28 29 32 34 32 32 35 38 34 34 34 42 39 40 40 35 43 43 42 42 42 40 40 40 39 38 39
32 32 32 34 34 34 34 32 30 30 29 32 34 35 36 37 38 37 38 37 33 34 40 37 35 35 34 34 38 40 39 39 41 43 41 39 39 39
30 31 32 32 32 31 30 30 30 30 30 30 33 34 36 36 38 39 38 37 38 36 38 36 30 30 30 29 29 36 39 40 40 42 42 42 38 38
31 31 31 30 29 28 29 29 29 30 31 31 32 33 35 36 36 34 34 35 35 35 36 35 32 31 31 29 30 33 33 36 38 39 40 40 38 39
29 29 29 28 27 27 28 29 29 29 29 28 29 32 34 32 31 32 30 30 29 30 35 35 34 32 30 31 32 31 34 32 37 38 38 38 39 38
29 30 29 29 28 29 29 30 30 31 30 30 28 27 28 28 28 30 29 28 25 26 28 32 35 34 34 32 29 31 32 33 37 37 37 34 36 38
31 31 30 30 30 30 30 30 30 28 28 27 26 26 25 25 25 27 27 25 24 26 27 30 30 30 30 33 34 31 34 32 33 32 34 33 35 38
29 29 28 28 27 28 27 27 26 26 26 26 25 25 24 24 22 23 23 23 23 25 26 28 27 25 22 20 31 35 29 29 29 29 31 33 34 37
28 27 26 26 26 26 26 25 24 24 23 23 22 22 21 21 20 21 22 21 21 22 23 25 25 26 23 19 20 26 30 27 27 28 28 32 37 33
25 25 25 25 25 24 23 23 22 22 21 21 22 21 20 19 18 19 19 18 18 20 19 21 25 26 27 27 21 23 30 33 32 30 29 28 30 32
24 23 23 23 22 22 22 21 21 21 20 20 19 18 18 18 16 17 17 16 17 18 19 22 25 25 24 22 20 22 26 30 32 32 32 30 29 29
21 22 22 21 21 21 20 19 19 18 18 17 17 17 16 15 16 17 16 16 17 16 17 17 20 22 21 21 21 21 23 25 28 26 29 31 30 32

GFSNE_sfc_temp_072.txt.gz
Temp
61 61 62 62 61 61 60 59 56 52 53 57 55 60 60 62 59 58 60 51 50 49 49 51 52 53 53 53 54 54 54 54 55 55 55 55 55 56
63 61 62 63 61 61 61 58 57 56 52 57 57 58 60 63 59 54 55 51 49 48 48 48 49 50 51 50 50 51 51 52 52 52 52 53 53 53
63 62 62 62 61 61 60 59 58 57 54 57 55 55 53 54 51 54 55 52 49 47 47 46 46 47 47 47 47 47 48 48 49 49 49 50 50 51
64 62 62 63 61 61 60 58 58 58 56 54 56 52 52 53 50 51 55 58 55 49 48 47 46 45 44 44 45 44 45 45 45 46 46 46 47 47
64 63 63 63 61 61 60 58 58 57 56 54 55 49 49 48 48 49 48 50 55 53 47 45 45 45 44 44 44 44 44 43 43 43 43 43 43 44
65 64 64 63 62 60 59 57 56 55 54 53 53 44 46 45 48 46 44 46 47 52 49 48 46 45 45 44 44 44 44 44 43 43 42 41 41 41
65 65 65 63 56 57 57 56 55 53 53 51 50 41 41 39 43 44 43 41 42 45 45 46 45 41 41 43 44 44 44 43 43 43 43 42 41 41
64 64 64 52 51 47 46 47 54 54 52 50 49 45 45 41 38 37 36 35 32 42 40 40 43 41 44 44 46 44 44 43 43 43 42 42 41 40
62 62 61 58 49 55 45 40 36 36 40 48 45 37 35 37 37 34 33 32 32 36 38 35 41 39 43 48 45 43 42 42 42 42 41 41 40 39
61 60 55 54 50 46 38 34 33 34 35 36 35 34 35 36 36 34 32 32 32 35 38 30 37 35 40 40 43 44 42 42 42 41 41 40 39 39
40 40 43 41 39 39 35 33 31 30 33 34 34 34 34 34 34 33 31 30 30 31 37 33 34 33 34 34 38 43 41 41 41 41 41 41 40 39
34 35 35 36 36 36 35 33 30 28 29 28 28 30 30 30 31 32 31 29 30 29 34 30 31 30 27 32 33 33 32 38 39 40 41 41 40 36
32 32 33 34 35 34 34 31 29 30 30 29 29 29 30 31 32 33 34 31 29 29 34 28 27 27 25 27 29 30 31 33 34 36 39 40 41 39
31 31 32 33 33 32 31 31 31 30 29 28 28 28 29 31 33 33 33 33 34 32 33 31 24 25 24 23 23 28 30 31 31 33 34 37 39 39
31 31 31 31 31 30 31 31 30 30 29 28 27 28 28 30 31 31 32 32 32 32 35 32 26 27 25 23 23 26 27 30 31 31 29 30 32 34
29 27 27 27 28 28 27 28 27 27 27 26 26 27 28 28 27 29 27 27 25 26 31 30 29 26 25 26 26 25 27 25 29 29 30 31 32 34
28 28 27 27 27 27 27 27 27 27 25 25 25 25 25 26 25 26 25 23 19 21 23 28 29 28 27 27 23 25 25 26 28 29 27 27 29 32
30 29 28 28 27 27 25 25 25 23 24 25 23 23 22 22 22 23 24 22 21 22 22 24 24 24 25 27 31 25 26 25 26 26 26 24 26 29
26 25 24 24 24 24 24 23 22 23 24 22 20 20 20 20 20 20 20 20 19 20 21 23 22 19 14 12 24 30 21 22 23 22 24 24 24 28
24 23 22 22 22 21 21 21 21 21 19 18 16 15 15 16 15 16 16 14 15 17 18 20 20 20 16 13 14 20 29 23 21 20 22 26 29 32
21 20 20 20 20 21 20 19 18 17 16 14 15 14 9 13 11 12 12 11 12 16 15 16 20 22 21 20 13 15 21 29 29 25 24 23 22 24
20 20 20 19 18 18 17 16 15 14 14 12 9 7 7 8 8 7 7 9 13 13 15 17 20 20 18 17 14 14 17 21 27 29 30 29 24 20
17 18 17 17 16 15 15 13 13 10 10 9 10 10 2 4 9 8 9 11 12 12 13 14 16 18 16 16 15 15 16 17 21 22 24 30 29 30

GFSNE_sfc_temp_075.txt.gz
Temp
60 59 59 59 58 59 59 59 57 52 54 52 53 55 57 58 58 59 59 57 51 51 51 52 53 55 55 55 55 56 57 57 57 57 57 57 56 56
61 59 59 60 58 59 60 59 58 57 54 56 54 55 55 59 59 59 59 55 50 49 49 49 51 52 52 52 52 53 53 54 54 54 54 54 54 54
61 60 60 59 59 58 59 59 58 57 55 58 58 58 55 57 58 58 58 57 56 48 48 48 48 48 48 49 49 50 50 51 51 51 51 51 52 52
61 60 60 60 58 60 59 58 58 58 56 55 58 56 52 54 57 52 54 57 52 48 46 46 47 46 46 46 46 46 46 46 46 47 48 48 48 49
61 59 59 58 58 59 58 58 59 59 58 57 57 58 55 49 50 49 51 52 53 52 45 46 45 45 44 44 44 44 44 44 44 44 44 44 45 45
61 60 61 61 59 59 58 58 59 58 58 56 56 55 51 48 50 51 45 48 49 53 49 47 45 44 44 43 42 43 44 44 44 43 42 41 41 42
61 62 62 60 55 58 60 59 58 57 57 55 53 53 46 40 44 48 48 48 42 43 42 42 42 41 41 42 42 43 44 43 44 44 43 42 41 41
60 61 62 53 53 49 48 50 57 57 56 55 54 52 52 49 46 41 37 36 35 40 37 36 39 38 40 40 41 42 43 43 43 43 43 43 42 41
61 61 60 59 51 58 45 39 37 37 39 50 52 51 43 38 37 35 34 34 33 33 35 32 36 34 39 42 42 43 42 42 42 42 42 41 41 40
61 60 59 58 54 51 40 35 33 34 35 37 37 35 35 36 37 36 34 32 32 34 34 30 33 32 37 39 41 42 41 41 41 41 41 40 40 39
43 42 46 48 43 41 37 33 31 31 34 35 35 34 34 35 35 35 32 31 29 30 33 31 32 32 33 33 37 40 39 39 40 39 39 40 40 39
35 35 36 38 36 37 35 33 29 28 29 30 30 30 31 32 33 32 32 29 29 28 31 29 30 30 29 31 32 32 32 35 36 38 39 39 39 34
33 32 34 35 36 35 35 33 30 30 29 30 30 30 30 31 30 30 30 30 28 28 31 30 29 29 28 28 29 30 30 30 30 32 36 37 38 37
31 32 32 33 33 32 31 31 31 30 30 29 28 28 28 27 28 28 30 31 32 31 32 30 25 26 25 24 23 28 27 28 28 29 30 33 35 35
31 31 32 31 31 30 31 30 30 30 29 27 26 26 27 28 29 29 29 30 31 31 33 31 28 28 25 23 23 24 24 27 28 26 26 27 27 28
28 28 28 28 27 27 27 28 28 27 26 25 25 26 27 26 25 27 26 26 26 27 31 30 29 27 24 25 25 23 25 23 27 27 27 27 27 26
28 28 27 27 26 25 26 25 25 25 24 24 23 23 23 23 23 25 25 24 21 21 23 27 28 28 26 26 23 24 23 24 24 24 24 22 24 25
28 26 24 24 24 24 22 21 22 23 23 22 21 21 20 21 21 22 23 21 19 20 20 22 21 20 22 24 28 22 21 20 22 24 24 21 21 23
24 23 22 22 22 22 21 21 19 20 21 20 20 19 19 19 18 18 18 17 16 17 18 20 19 16 12 10 20 26 19 20 21 20 21 21 19 22
22 20 20 20 20 20 20 20 19 18 18 18 16 15 15 15 14 14 14 11 13 15 16 18 17 17 12 10 12 16 26 20 18 18 19 22 24 28
19 18 18 18 18 18 17 16 15 14 14 13 13 12 10 12 11 11 10 9 10 14 12 13 17 19 19 17 10 11 17 25 24 20 20 18 18 20
17 17 16 15 15 14 13 13 12 12 11 11 7 5 4 6 5 5 5 4 10 11 12 15 18 18 15 13 10 10 14 17 22 25 26 25 20 17
13 13 12 12 11 11 11 9 8 8 7 6 4 3 -8 0 4 3 4 7 9 9 11 11 12 14 13 13 11 11 12 13 17 18 20 27 28 29

GFSNE_sfc_temp_078.txt.gz
Temp
58 58 58 58 58 59 59 57 55 51 54 56 54 56 58 60 58 58 57 56 51 51 51 53 55 56 57 58 59 60 60 60 60 60 60 60 60 59
60 58 59 61 59 59 59 59 58 57 53 60 57 57 57 59 58 57 59 55 52 50 49 50 51 53 54 55 55 55 56 57 57 57 57 57 57 56
60 58 58 60 60 59 59 60 58 57 55 58 58 57 53 55 56 55 56 57 57 50 49 49 48 49 51 50 51 51 52 52 53 54 54 54 55 55
59 58 58 59 57 59 59 58 57 58 56 54 58 56 53 56 56 54 56 57 57 54 48 48 48 47 47 46 46 47 47 48 48 49 49 50 51 52
60 58 59 58 57 58 58 57 57 57 56 55 56 58 58 53 53 53 55 55 55 53 47 45 46 47 46 45 45 45 44 44 43 43 43 44 46 47
60 60 59 59 58 58 57 57 57 56 56 56 56 57 58 56 53 55 52 51 52 54 50 46 45 45 44 43 43 43 42 42 41 41 41 41 41 43
60 60 60 58 54 56 59 58 57 56 56 56 56 57 57 45 48 54 50 53 43 43 43 42 43 43 43 42 42 40 40 39 39 40 41 41 41 41
58 59 60 52 52 47 47 49 56 56 55 56 56 55 57 56 52 51 52 38 40 40 38 37 39 38 39 39 39 38 38 38 39 41 42 42 42 41
58 58 58 59 51 57 49 44 43 40 42 56 57 57 57 58 54 38 36 36 33 35 36 33 36 35 39 40 39 39 39 40 40 41 41 41 40 40
60 60 59 59 58 56 55 46 41 35 36 38 40 40 36 38 40 39 36 33 32 33 34 31 33 32 35 35 36 37 37 40 40 40 40 40 40 39
60 60 57 57 54 46 49 38 32 32 35 35 34 34 34 35 36 36 33 34 30 30 33 31 31 31 32 32 35 37 34 36 36 37 38 39 39 38
41 37 36 38 39 40 49 37 31 30 30 30 30 31 31 32 33 32 32 30 29 28 28 29 28 28 27 30 30 30 31 34 35 36 36 37 37 34
33 32 33 34 35 34 34 33 30 31 30 30 29 29 29 29 29 29 29 29 28 25 28 27 26 27 26 27 29 30 29 30 30 31 34 34 35 34
31 31 32 33 33 32 31 31 31 30 29 28 27 26 26 27 28 29 29 29 29 28 29 29 25 25 24 23 23 28 29 29 28 29 28 31 32 33
30 31 31 31 31 29 30 30 30 29 27 25 25 25 26 27 28 28 28 28 28 28 30 29 28 27 26 24 24 25 25 28 28 27 26 26 26 26
28 28 28 27 27 26 26 26 26 26 25 24 24 25 26 24 24 25 24 25 24 25 30 29 28 26 23 24 24 23 25 22 25 25 24 23 24 24
28 27 26 25 23 23 23 24 24 24 23 23 22 22 21 22 22 24 23 22 19 20 21 25 26 25 25 24 20 22 21 21 22 22 22 21 21 22
26 23 23 22 21 21 21 20 20 21 21 20 20 20 19 19 19 20 20 18 16 17 17 20 19 19 21 22 25 19 18 18 20 22 22 18 19 22
22 20 19 19 19 20 19 19 18 19 20 18 17 17 17 17 16 16 15 15 14 15 17 19 17 14 8 4 17 24 16 17 18 17 19 18 17 20
20 18 18 18 18 18 18 17 17 16 16 16 14 13 13 14 12 12 12 8 11 13 14 16 15 14 8 2 9 14 23 17 15 14 15 18 21 25
17 16 16 15 15 15 14 14 13 12 11 10 10 8 2 7 6 8 7 6 7 12 10 11 15 17 16 15 3 7 14 22 21 18 17 15 14 16
14 13 13 12 11 11 10 9 9 8 7 8 3 1 -2 3 2 4 4 3 8 9 10 13 15 15 13 11 8 7 11 14 20 22 24 23 17 14
9 9 7 5 5 5 6 4 3 2 2 -0 -0 0 -8 -0 4 3 4 6 8 8 9 9 11 12 11 11 9 9 10 11 14 14 16 23 25 26

GFSNE_sfc_temp_081.txt.gz
Temp
58 57 59 58 57 58 57 56 54 50 53 55 54 57 58 59 58 58 57 56 51 51 51 52 54 56 56 57 58 59 61 61 62 62 62 62 63 63
59 56 57 58 57 57 57 57 56 55 52 60 60 57 58 59 59 57 57 54 51 49 49 50 51 52 53 54 55 56 57 59 59 60 59 60 61 60
58 57 57 60 58 58 58 58 57 57 54 58 61 57 54 56 57 57 57 56 56 50 49 49 48 48 50 51 51 52 53 55 56 56 56 57 58 58
58 58 58 59 58 59 58 58 58 58 56 54 59 58 53 56 57 56 56 57 57 55 50 49 48 48 47 47 48 48 49 50 50 50 50 51 53 53
59 58 59 58 57 58 57 57 57 57 57 55 56 60 59 52 52 52 55 56 56 54 49 48 48 47 47 46 46 47 47 46 45 45 44 44 43 43
58 59 58 57 57 57 56 57 58 57 57 55 55 56 56 57 54 56 55 53 54 56 52 50 48 46 45 45 45 45 44 43 42 41 40 39 38 39
57 57 58 57 53 56 59 57 56 55 54 55 54 55 54 55 50 56 54 55 56 52 50 43 44 44 44 43 44 43 41 41 40 40 40 39 38 38
57 57 58 51 51 47 46 48 56 55 53 54 54 54 54 56 57 55 54 53 48 41 41 37 39 39 41 40 40 40 39 39 39 39 39 39 39 39
57 57 57 58 51 56 48 43 44 44 48 57 55 55 54 56 57 55 53 53 52 37 37 33 36 36 39 40 39 39 39 38 38 38 38 38 39 39
58 58 57 58 58 56 55 54 51 51 45 44 49 49 44 40 44 43 39 33 33 33 34 32 32 32 35 35 36 37 37 37 37 37 36 38 39 39
58 58 49 53 50 45 52 51 41 32 35 36 35 35 35 35 36 37 34 34 32 29 29 32 30 31 31 32 34 35 34 34 33 34 35 36 37 37
39 36 35 35 35 36 39 47 36 30 30 30 30 30 31 31 32 30 32 31 29 26 27 28 28 28 27 29 29 29 29 31 31 32 34 34 34 33
33 32 32 34 35 35 34 33 31 30 29 29 28 28 29 29 29 29 29 29 25 24 28 28 27 27 27 27 28 28 28 28 29 30 33 33 34 33
31 31 32 32 33 33 32 32 31 30 28 27 26 25 26 26 27 27 28 28 28 26 27 27 25 25 24 23 23 28 29 29 29 29 29 30 31 32
30 30 30 30 30 29 30 29 29 27 26 24 23 23 24 25 26 26 27 27 27 27 28 27 25 25 25 23 23 24 24 27 28 27 26 25 25 25
28 27 27 27 26 25 25 25 25 25 24 23 22 23 23 23 22 23 22 24 23 23 26 27 25 25 22 23 23 21 23 20 23 23 23 23 24 23
26 25 23 22 21 21 21 21 22 22 20 21 20 20 20 21 20 22 22 21 18 18 18 22 25 25 25 23 19 19 19 19 20 20 20 18 20 19
22 20 20 20 19 19 18 18 19 19 19 19 18 19 18 18 18 18 19 17 16 16 17 18 18 17 18 20 24 17 16 16 18 20 20 16 16 19
19 18 17 18 18 18 18 18 16 17 18 16 15 16 16 16 15 14 14 15 15 15 16 17 15 12 6 2 15 23 14 16 16 14 16 15 14 16
17 15 14 16 16 16 16 15 14 14 14 13 11 11 12 13 12 11 11 10 12 13 13 14 14 12 7 0 3 12 21 15 13 12 13 16 18 23
14 13 13 13 13 13 12 11 10 9 8 7 6 7 4 8 6 8 8 8 9 11 9 10 13 16 15 12 -0 4 12 20 20 16 15 13 13 14
11 10 10 9 9 9 7 7 6 5 4 3 -4 -4 -4 2 -0 1 1 2 7 8 9 11 14 14 12 9 6 5 9 12 17 20 21 20 14 10
6 8 7 7 7 6 6 3 2 1 0 -0 -0 -0 -10 -2 2 -0 -1 2 5 5 7 7 9 10 9 9 7 7 7 8 11 12 14 21 22 23

GFSNE_sfc_temp_087.txt.gz
Temp
63 63 64 63 64 66 66 66 65 59 61 64 60 58 58 59 60 65 65 58 52 51 51 52 53 55 56 57 57 58 60 61 62 62 63 63 64 64
60 59 59 62 62 61 65 66 64 62 58 68 60 59 59 62 61 61 63 56 53 50 49 50 51 53 53 54 54 55 56 57 58 59 60 61 62 62
59 58 57 58 57 57 57 58 60 60 57 59 63 60 58 60 62 64 62 62 64 51 49 49 49 49 50 51 51 52 53 54 55 56 57 58 59 60
59 59 59 59 57 58 58 57 57 59 57 57 65 68 66 67 67 66 67 71 70 61 51 50 49 49 48 48 48 49 49 50 51 52 53 55 56 57
59 58 58 59 58 62 63 62 60 60 60 59 62 68 69 69 67 67 67 69 71 61 52 49 49 49 48 48 48 48 48 48 47 47 48 49 50 52
60 61 62 62 62 62 59 59 58 58 58 57 57 58 62 67 65 64 64 66 65 67 60 55 54 52 48 48 47 47 47 47 47 46 46 44 44 46
61 62 65 63 54 58 64 64 63 61 59 59 58 59 58 59 59 62 58 60 65 63 62 62 62 62 58 48 49 46 45 45 45 45 45 42 41 42
61 63 64 52 52 46 46 48 56 60 57 56 56 55 56 57 59 57 57 55 52 62 59 57 44 40 41 41 40 40 41 41 41 41 40 40 39 38
60 59 59 59 52 59 49 43 44 42 43 53 54 54 54 53 51 53 55 55 53 39 40 36 36 33 35 36 37 37 37 37 37 36 36 35 35 34
50 44 45 46 40 41 46 50 47 35 36 38 36 34 33 35 37 39 39 34 34 33 34 33 32 31 33 34 35 35 35 35 35 35 35 34 34 34
37 36 37 37 36 37 40 40 33 32 34 35 34 33 33 32 32 37 35 35 34 31 29 32 31 29 29 29 32 33 33 33 33 33 33 33 33 33
33 33 33 34 34 35 37 38 33 32 32 30 30 30 30 29 30 30 31 32 31 28 29 30 31 32 30 32 32 33 33 31 31 32 32 32 32 33
30 30 31 32 33 33 33 31 31 30 28 28 28 28 28 28 28 29 29 30 27 25 28 32 30 32 31 31 32 32 31 32 33 33 30 30 30 30
29 30 30 31 31 31 31 30 30 29 28 26 26 25 26 27 28 28 28 28 28 26 28 30 28 29 29 30 29 32 31 31 32 31 30 30 30 30
29 29 29 29 29 29 28 29 30 30 29 28 27 26 27 28 30 30 30 30 29 29 30 31 30 30 29 27 27 28 27 31 30 29 29 28 28 28
28 28 27 27 26 27 28 29 29 29 28 27 26 27 29 28 28 29 28 29 27 26 30 29 29 29 27 28 28 26 27 24 28 28 28 27 29 29
29 29 28 28 27 27 26 26 27 28 26 27 27 26 26 27 26 27 27 27 24 24 23 27 29 29 29 27 26 27 26 26 27 26 26 25 27 28
27 25 24 24 23 24 23 23 23 23 24 25 24 25 24 24 24 25 26 24 23 23 23 23 23 24 25 26 24 24 24 23 25 25 25 22 23 27
23 22 21 21 22 22 22 21 20 21 21 21 21 21 22 22 22 21 22 22 21 22 22 22 21 19 17 15 23 22 21 22 22 22 24 24 22 24
21 20 20 20 21 20 20 19 19 19 18 19 18 18 19 19 19 19 19 17 20 20 20 21 19 18 16 14 14 20 22 19 20 19 21 24 26 26
18 18 18 18 18 17 16 15 15 14 14 14 15 15 15 18 16 17 17 13 15 18 17 17 19 17 21 21 17 18 22 23 22 19 20 20 20 23
16 15 15 15 15 15 14 14 14 13 13 14 13 12 14 15 14 14 14 15 16 16 17 19 20 20 20 17 16 16 20 21 23 23 23 21 18 15
13 14 13 13 14 13 13 12 10 10 9 10 10 11 10 12 13 14 14 14 14 14 15 15 17 19 17 17 15 16 16 17 20 21 23 25 24 23

GFSNE_sfc_temp_090.txt.gz
Temp
68 67 69 70 71 74 73 72 67 61 66 70 70 71 71 70 67 68 69 60 53 51 51 52 53 55 55 56 57 58 59 60 61 62 62 63 64 64
63 66 68 69 71 69 70 69 68 64 62 71 72 74 71 63 65 61 64 57 54 51 50 50 51 52 53 53 54 55 56 57 58 59 59 60 61 62
62 64 66 67 62 63 63 63 59 62 57 65 70 73 69 69 71 66 64 67 71 53 50 49 49 49 50 51 51 52 53 54 55 56 57 58 59 60
66 61 62 61 59 58 57 57 57 59 56 55 62 63 62 65 67 70 74 75 74 64 54 51 50 49 48 48 49 49 49 50 51 52 53 55 56 57
62 62 62 61 59 59 58 58 60 65 62 61 63 68 71 73 72 72 71 72 75 65 53 50 50 49 49 48 48 48 48 48 48 47 48 48 50 52
63 61 61 60 60 60 60 61 59 60 61 58 58 61 65 70 70 69 69 73 70 74 66 60 58 53 47 45 45 46 46 46 46 46 45 44 43 45
66 67 67 60 54 59 65 63 63 63 63 64 61 62 63 65 63 65 61 63 66 70 66 64 48 45 43 42 43 42 43 44 44 44 42 41 40 41
63 64 65 53 54 47 47 48 55 63 60 58 57 55 56 57 59 58 57 56 54 47 49 42 39 36 37 38 39 39 39 39 39 39 39 39 38 37
61 60 60 59 51 58 48 43 43 37 38 47 50 51 46 39 40 44 43 40 38 37 39 35 36 33 35 36 37 37 37 37 37 36 36 36 35 35
41 42 44 43 39 40 45 41 36 35 35 37 34 32 32 33 35 39 39 37 35 33 33 36 33 30 33 34 35 35 35 35 35 35 34 34 34 34
35 35 37 36 35 37 42 36 32 32 34 34 33 32 32 33 34 39 34 36 36 30 30 33 32 30 31 32 33 34 34 34 34 34 34 34 35 34
32 32 33 34 34 35 41 36 31 31 30 30 30 31 32 32 32 32 37 33 33 31 32 32 33 33 31 35 35 36 37 33 33 33 34 33 32 39
30 30 31 32 33 33 33 32 30 30 30 30 30 31 32 31 32 32 32 34 33 31 32 35 35 36 35 35 36 36 35 35 36 37 33 32 31 31
31 31 31 32 32 32 32 31 32 32 32 32 32 31 31 31 32 32 31 32 32 31 34 35 33 35 35 34 34 38 39 39 37 37 36 34 33 32
32 30 31 32 32 31 31 32 33 33 32 31 30 30 31 32 34 34 34 36 35 35 35 36 35 36 36 35 35 37 32 38 38 35 35 34 33 34
31 32 31 31 31 32 32 32 32 32 31 31 31 32 34 34 33 35 34 36 35 34 36 34 35 35 33 35 34 33 35 31 35 35 34 33 34 34
33 33 33 33 32 32 31 31 31 32 31 31 31 32 32 33 32 34 33 34 31 30 31 33 35 34 34 32 31 33 32 32 34 32 30 29 31 32
32 30 28 29 29 29 29 29 29 28 29 30 30 30 30 29 30 31 32 30 29 30 30 30 30 31 33 31 27 29 30 30 31 31 31 28 29 33
29 27 26 27 28 28 28 27 26 26 27 27 27 26 27 28 27 27 27 28 27 28 29 30 28 25 23 22 29 24 25 26 26 27 29 28 27 29
28 26 26 26 26 26 26 25 25 25 24 25 24 24 24 25 25 25 25 22 25 26 27 29 27 24 21 20 20 25 27 25 25 24 25 28 30 30
25 25 25 25 25 25 23 22 21 20 20 21 21 21 21 23 22 22 23 19 19 24 23 24 25 21 26 27 23 24 28 28 26 24 24 23 24 26
23 23 23 23 22 22 21 21 21 20 20 20 19 19 19 21 20 20 20 20 22 22 23 25 26 26 25 23 21 21 25 27 28 28 27 26 22 19
20 21 20 20 20 20 20 19 17 18 16 17 17 17 16 17 19 20 19 20 20 19 21 21 24 25 23 23 21 22 22 23 26 26 29 29 28 27

GFSNE_sfc_temp_093.txt.gz
Temp
66 68 67 69 72 75 74 74 69 63 65 66 69 72 73 73 69 71 70 59 52 51 51 52 54 55 56 56 57 58 59 60 61 61 62 63 63 64
66 65 65 70 70 70 72 70 68 66 63 72 70 69 70 68 67 70 70 60 53 51 51 51 51 53 54 54 54 55 56 57 58 58 59 60 61 62
60 60 61 64 67 69 64 63 67 64 62 67 70 71 64 67 70 69 68 69 69 52 51 51 50 49 49 50 51 52 53 54 55 56 57 58 59 60
58 61 62 65 65 63 65 63 64 64 59 57 63 61 62 65 66 68 70 73 71 65 53 51 50 49 49 49 49 48 49 50 50 51 52 54 55 56
61 64 66 65 65 65 63 60 59 59 58 56 57 64 67 69 68 68 68 70 74 63 54 51 52 52 47 45 45 46 46 46 46 46 47 47 49 50
62 65 68 65 65 65 61 59 58 57 59 59 57 58 62 67 67 66 66 69 69 73 64 47 46 43 42 43 43 43 44 44 45 45 43 42 41 43
62 66 66 62 54 58 62 62 61 59 61 59 58 60 62 63 63 65 61 62 61 50 53 43 45 42 40 41 41 41 41 41 42 41 41 40 39 40
59 62 67 54 54 47 47 47 50 56 58 56 56 55 57 58 56 52 50 51 50 41 45 39 39 35 36 37 38 38 39 39 38 38 38 38 37 37
52 51 56 49 44 50 46 39 37 36 37 45 48 45 41 36 37 42 44 43 42 35 38 37 36 33 35 36 37 37 37 37 37 37 36 36 35 35
39 41 41 41 38 40 45 38 34 34 34 35 34 32 32 33 35 38 37 36 34 33 33 34 33 31 33 34 35 36 36 36 36 36 36 36 36 35
35 35 36 35 35 38 40 34 32 31 33 34 34 33 33 34 35 41 36 37 35 32 32 33 33 32 32 33 34 34 34 34 35 35 35 35 34 36
32 32 33 33 34 37 36 33 30 29 31 31 31 32 33 33 34 33 36 35 35 34 32 32 35 35 33 36 36 37 36 34 34 34 34 33 33 35
30 30 31 33 33 33 33 31 30 31 31 32 32 33 33 33 33 33 33 32 33 31 33 33 34 35 35 35 37 37 36 37 38 39 36 36 34 33
30 31 32 33 33 33 33 33 33 33 33 33 32 32 32 32 32 33 32 34 34 33 36 36 33 34 33 33 33 38 39 40 40 38 38 38 37 36
32 32 33 33 33 32 32 32 33 33 33 32 31 31 32 34 36 37 38 40 38 37 37 37 35 36 36 34 34 36 34 38 39 37 36 35 34 35
33 33 32 32 32 32 33 33 33 33 32 31 31 34 36 36 35 36 36 36 36 36 38 37 36 35 32 34 34 33 36 32 36 36 34 33 34 34
33 33 33 33 32 32 32 32 32 33 32 32 32 33 33 34 34 35 34 34 32 32 33 35 36 36 35 32 29 33 33 32 34 32 31 30 32 34
32 30 29 30 30 30 30 30 30 29 31 31 31 31 31 30 31 32 32 31 30 31 31 32 31 31 33 31 27 29 29 29 30 30 31 28 29 32
29 28 27 28 29 30 29 29 27 27 29 29 28 28 28 29 29 28 28 28 28 30 31 32 29 26 22 21 30 29 25 27 27 27 28 27 26 28
29 28 27 28 28 28 27 26 26 26 26 26 25 25 25 26 25 25 26 23 23 27 28 30 29 25 20 19 20 26 31 27 26 24 25 27 29 30
27 27 27 27 27 27 25 25 23 23 23 23 23 23 22 24 23 23 24 22 22 25 24 25 27 24 27 28 23 24 28 31 29 26 25 23 23 25
26 25 25 25 24 24 23 22 23 22 21 22 21 21 20 22 21 21 22 21 22 23 23 26 28 28 26 24 22 22 25 29 31 31 31 28 23 19
23 23 23 22 22 22 23 21 20 20 19 18 19 18 18 19 20 21 21 21 22 21 22 21 23 26 25 25 23 23 23 25 26 27 28 31 30 30

GFSNE_sfc_temp_096.txt.gz
Temp
62 63 62 63 64 64 64 64 60 56 58 59 60 63 64 64 63 62 62 56 52 51 51 53 55 56 56 57 58 59 60 60 60 61 62 62 63 64
62 62 61 62 62 62 63 62 61 58 55 61 60 63 64 64 62 62 64 58 53 51 50 51 52 53 54 55 55 55 56 57 57 58 59 60 60 61
60 60 60 61 60 61 61 61 60 57 54 58 61 62 60 60 61 60 62 64 64 52 51 50 49 49 50 50 51 52 53 53 54 55 56 57 58 59
58 58 58 59 58 59 60 60 58 59 57 55 59 57 59 60 60 61 64 67 65 59 52 50 50 49 47 45 46 46 47 48 48 49 51 52 53 55
57 57 57 58 58 59 59 58 58 59 57 54 54 59 60 61 60 62 62 64 68 61 53 44 44 43 43 43 44 44 44 45 45 45 45 45 46 47
55 56 57 58 59 59 58 58 57 56 55 54 55 56 57 60 59 58 58 61 61 66 46 44 43 42 42 42 42 42 42 43 42 42 40 40 40 42
56 57 60 59 54 57 61 58 56 55 55 55 55 57 56 56 56 58 57 57 47 46 51 43 41 40 39 40 40 40 40 40 40 40 40 39 38 39
55 57 59 52 51 47 44 38 43 53 56 55 55 55 54 45 45 45 46 46 46 39 42 40 39 35 36 37 39 39 39 39 39 39 38 38 37 37
51 52 51 46 45 48 37 36 36 36 36 45 48 39 40 36 37 40 42 42 41 35 37 35 35 32 35 37 37 38 38 38 38 37 37 37 37 36
39 40 41 40 37 44 38 35 33 33 34 35 34 32 32 33 35 38 37 35 33 33 33 33 33 31 33 34 37 37 36 36 36 36 36 35 35 35
34 35 35 35 36 41 36 33 31 30 34 34 34 34 34 35 35 38 34 34 32 30 31 31 31 30 31 31 32 35 35 35 35 35 35 35 35 35
33 33 34 34 36 37 34 33 30 30 31 31 32 32 33 33 34 31 32 33 32 30 28 30 32 32 31 33 33 33 31 35 35 35 35 35 35 28
30 31 32 33 33 33 33 32 30 31 31 32 32 32 31 31 28 27 28 28 30 27 30 31 31 31 31 31 32 30 26 27 27 31 36 36 38 35
29 30 31 33 33 33 33 33 33 33 33 31 30 29 30 30 25 25 25 25 25 25 26 28 26 27 28 27 29 30 27 26 28 29 28 33 35 35
31 32 33 33 33 32 33 33 33 32 31 30 29 29 29 25 27 28 29 31 31 31 33 30 25 27 24 23 23 25 27 28 28 27 27 24 23 23
31 31 31 31 32 31 31 31 31 31 30 29 29 27 25 25 25 26 25 26 26 26 33 31 30 28 23 25 25 23 26 23 26 26 26 24 24 24
32 31 30 30 29 28 26 26 26 26 25 24 23 24 25 26 26 26 26 25 22 22 23 28 29 29 28 28 22 24 23 23 23 25 25 23 24 23
29 27 26 27 26 25 24 22 22 22 24 24 22 24 24 23 25 26 26 23 21 23 23 24 22 23 26 25 27 23 21 21 22 24 25 21 21 24
26 25 24 24 23 24 23 21 20 20 23 22 21 20 21 23 21 22 22 21 21 22 23 23 21 16 10 7 23 29 21 22 21 20 22 21 19 22
25 24 23 23 23 22 21 20 19 18 18 19 15 15 15 18 16 18 19 12 17 20 22 23 21 19 10 4 7 19 30 22 17 15 18 22 24 28
22 22 22 21 21 20 19 19 13 12 12 10 13 14 11 16 13 15 15 13 12 20 18 19 22 21 21 18 8 12 18 30 29 24 21 19 19 20
21 20 20 19 19 18 16 14 15 13 13 15 10 8 8 12 9 10 11 9 15 14 17 21 23 23 22 19 15 9 17 17 27 30 30 28 20 15
17 18 17 16 16 15 17 13 12 13 12 11 11 10 6 11 12 11 10 11 14 15 16 15 17 19 19 19 17 16 16 16 21 20 21 28 29 29

GFSNE_sfc_temp_099.txt.gz
Temp
61 61 60 63 62 63 61 63 61 55 56 58 59 64 64 61 61 61 60 54 51 51 51 52 54 56 56 57 58 59 60 61 61 61 61 62 62 63
61 60 61 61 60 61 59 59 60 57 54 58 59 59 62 62 60 61 61 56 52 50 50 50 51 53 54 54 54 55 56 57 58 58 59 59 60 61
61 60 60 59 59 58 58 58 57 56 55 58 58 58 58 59 59 59 59 60 61 50 50 50 49 50 51 49 50 50 51 52 53 54 55 56 57 58
59 59 59 59 58 58 58 58 57 57 56 55 57 56 56 59 60 57 61 64 62 57 51 50 47 47 45 44 45 46 46 47 47 48 48 49 50 51
59 59 59 59 57 57 57 58 58 58 57 55 55 57 58 58 57 57 59 61 64 53 43 43 43 43 43 43 43 43 44 44 43 42 42 43 44 46
57 58 58 57 56 57 57 57 56 56 55 55 52 53 55 56 57 55 53 57 55 52 44 43 42 42 42 42 42 42 42 42 42 41 40 39 39 41
55 56 56 54 50 53 58 56 56 56 55 54 52 52 52 53 53 54 53 53 44 46 44 42 40 39 39 40 41 41 41 41 41 41 40 39 38 39
53 55 56 50 49 43 40 39 46 55 53 52 52 51 52 47 45 46 47 47 46 38 43 37 38 35 37 38 39 39 39 39 39 39 38 38 38 37
52 53 53 46 46 42 37 37 35 36 37 48 51 43 42 38 38 41 44 43 40 34 37 33 35 32 35 37 38 38 38 38 38 37 37 36 36 36
37 39 41 40 40 41 37 34 33 34 34 35 33 32 32 33 36 38 38 34 33 32 32 32 32 31 33 34 37 37 37 37 37 36 36 36 36 36
34 35 36 37 38 39 35 32 31 31 34 35 34 34 34 34 36 37 34 34 32 29 31 32 31 30 31 30 32 37 36 36 36 36 35 35 36 34
32 33 34 35 35 35 34 32 30 30 31 31 31 32 32 32 33 32 33 32 32 28 30 31 31 31 30 32 32 30 24 35 36 37 36 35 36 28
31 31 32 34 35 35 34 32 31 32 31 31 31 31 31 30 30 29 29 29 23 19 25 31 30 30 30 30 27 25 25 25 25 29 36 36 36 34
30 31 32 34 34 33 33 32 32 32 31 30 29 28 28 24 23 23 23 25 26 25 25 26 22 22 20 20 22 26 24 23 26 27 26 31 33 34
31 31 32 32 32 31 32 32 32 31 30 28 26 23 20 21 25 25 27 29 29 30 32 29 24 25 22 21 21 23 25 26 25 24 24 24 23 23
30 29 29 28 28 27 27 28 28 28 26 25 23 20 23 25 26 25 25 25 25 25 30 29 27 26 23 24 24 22 23 21 22 23 24 22 23 22
30 29 28 27 24 24 23 24 25 25 23 23 23 23 23 25 25 25 25 24 21 20 21 26 28 27 25 26 21 22 21 21 22 23 24 22 22 21
27 24 22 22 22 22 21 21 22 22 23 23 21 22 22 22 23 24 23 21 19 21 22 22 21 21 23 25 28 21 20 19 21 23 24 19 20 23
23 22 21 21 20 21 20 19 19 21 22 20 19 18 19 21 20 21 20 19 18 20 21 22 19 12 7 2 21 29 19 20 19 20 21 20 18 21
22 21 20 20 21 20 20 19 18 19 18 18 16 15 15 17 16 16 16 11 15 19 19 21 19 19 10 6 6 16 28 20 15 14 15 21 22 28
20 19 18 19 19 18 17 16 15 14 14 14 13 13 11 13 13 14 13 12 13 18 16 17 19 20 21 16 6 8 16 28 26 22 21 16 15 19
17 17 16 16 16 16 14 14 13 12 11 12 10 10 9 11 10 11 11 10 14 14 15 17 19 19 17 16 13 8 15 14 23 27 27 25 16 13
15 14 13 12 13 13 13 10 9 8 8 7 7 7 4 9 9 10 11 11 12 12 12 12 14 16 15 15 11 12 12 13 17 17 18 25 26 27

GFSNE_sfc_temp_102.txt.gz
Temp
61 61 61 60 62 61 63 63 60 53 54 54 55 59 62 62 61 59 61 54 51 51 51 52 55 56 56 57 58 59 60 61 61 61 61 61 61 62
61 60 60 60 59 59 59 60 60 59 54 57 56 59 61 61 59 60 60 54 50 49 49 50 52 53 54 54 55 55 56 57 58 58 58 58 59 59
61 60 60 61 59 58 59 58 59 56 55 54 58 58 58 59 59 59 58 59 59 49 49 49 49 48 49 49 49 50 51 52 53 53 54 55 56 57
59 59 59 59 59 57 57 57 57 57 55 54 56 56 57 58 59 58 59 61 61 52 48 49 47 46 45 45 45 46 47 47 47 48 48 49 50 51
60 60 60 59 58 57 57 56 57 56 57 55 55 57 57 57 56 57 58 58 58 45 43 43 43 43 43 43 43 43 43 43 42 42 42 42 43 45
59 60 60 60 59 57 56 56 56 55 55 54 54 54 55 56 56 54 54 56 50 48 43 42 42 43 42 42 42 42 42 42 41 41 40 39 39 41
58 58 59 57 51 54 57 56 56 55 54 54 53 52 53 52 53 53 53 50 43 45 43 41 40 39 40 40 41 41 41 40 40 40 39 39 38 38
56 57 55 49 48 45 43 40 48 55 54 54 53 53 52 51 48 49 50 48 43 38 42 36 37 35 37 38 39 39 39 39 38 38 38 38 37 37
52 53 50 47 45 41 37 37 35 36 37 52 53 48 45 42 43 43 44 43 37 34 38 32 34 33 35 37 38 38 38 38 38 37 37 37 37 36
39 41 45 43 42 41 37 34 33 33 33 35 34 32 33 34 39 40 39 33 32 32 33 31 32 31 33 34 36 37 37 37 37 37 36 36 36 36
35 37 38 38 38 39 35 32 31 31 34 35 34 34 35 35 37 38 34 34 31 29 31 32 31 30 31 31 33 37 37 37 37 37 36 36 36 34
33 34 35 35 35 36 35 33 31 30 31 31 31 31 32 32 33 33 34 33 30 28 30 31 31 31 29 29 29 25 25 33 36 37 37 36 36 28
31 32 33 34 34 34 34 33 31 32 31 31 30 30 30 29 29 30 30 31 27 25 28 30 28 27 25 26 28 24 23 23 23 27 32 34 34 32
30 31 32 34 34 33 32 32 32 31 31 29 28 27 28 28 27 27 27 28 29 28 26 25 21 21 19 20 22 25 24 23 24 24 24 29 30 31
29 29 30 30 30 29 30 30 30 30 28 26 24 24 25 27 29 29 29 30 29 30 31 29 26 27 24 22 21 22 23 23 23 22 23 22 23 23
28 26 26 26 25 25 25 26 25 25 25 24 24 25 27 26 25 27 26 27 27 27 30 29 27 26 23 24 24 22 22 20 22 23 24 23 23 21
27 26 24 23 22 22 23 24 25 25 23 23 24 24 25 25 24 25 25 24 22 22 22 26 27 26 25 26 20 21 21 21 21 23 23 21 21 21
24 22 21 21 20 20 20 20 21 21 22 22 21 22 22 22 23 23 23 22 20 21 21 22 22 22 24 25 28 22 21 19 20 23 23 17 20 23
21 20 19 19 19 20 19 19 18 19 20 19 18 18 20 21 20 20 20 20 20 21 21 22 20 17 12 9 21 28 18 20 19 17 21 20 18 21
20 19 18 19 19 18 18 17 17 17 17 16 15 14 16 17 16 17 17 15 18 19 19 20 18 16 11 6 7 15 26 18 14 12 15 19 21 26
18 17 17 17 17 17 15 14 13 13 12 11 11 12 11 14 13 14 14 13 14 16 14 14 17 18 19 16 7 9 15 25 24 20 18 14 11 16
15 14 14 14 14 14 13 11 10 10 9 9 8 7 6 9 8 9 9 7 12 12 13 15 18 17 16 14 10 5 13 12 21 24 25 22 13 10
11 11 11 11 11 11 10 7 5 4 4 5 5 6 3 5 8 8 7 10 10 11 12 10 12 14 13 13 9 7 9 9 14 14 15 22 23 23

GFSNE_sfc_temp_105.txt.gz
Temp
61 61 61 61 61 61 63 62 58 52 52 53 53 59 60 60 59 59 59 54 51 50 51 53 55 56 56 57 58 59 60 61 61 62 62 62 62 62
61 60 61 60 60 61 59 61 60 58 54 59 56 55 60 60 59 59 59 56 50 49 49 50 51 53 54 54 54 55 56 57 58 58 58 58 59 59
61 60 60 61 59 59 59 58 59 56 54 55 57 56 56 58 58 58 59 58 58 49 49 48 48 48 48 49 49 50 51 52 53 54 54 55 55 56
60 60 60 60 59 59 58 58 58 58 55 53 54 54 55 57 57 57 58 60 58 48 48 47 46 45 45 45 46 46 47 47 47 47 48 49 50 51
60 59 59 59 58 58 58 57 58 57 56 54 53 56 56 56 55 56 57 54 50 45 43 43 43 43 43 43 43 43 43 43 42 42 42 43 44 45
60 60 60 59 59 58 57 57 57 56 55 54 53 53 54 55 55 55 54 54 47 46 43 42 43 43 43 42 42 43 42 42 41 40 39 39 39 41
58 59 59 58 52 56 58 57 56 55 54 53 52 52 52 52 53 53 54 48 44 44 41 40 40 39 40 41 42 41 41 41 41 40 39 38 38 38
57 58 59 51 49 46 47 47 53 55 54 53 53 52 52 53 51 52 51 46 43 40 39 36 37 36 37 38 40 40 40 39 39 38 38 38 38 37
47 54 51 47 44 42 38 37 36 36 42 54 53 51 50 49 48 46 46 46 40 34 38 32 34 32 36 37 38 38 38 38 38 38 38 37 37 36
38 40 45 44 43 42 38 35 34 34 34 36 40 36 34 38 43 44 41 32 33 32 34 31 32 31 33 34 36 37 37 37 37 37 37 37 36 35
35 37 38 38 38 40 37 33 32 32 34 35 35 35 35 36 38 39 34 36 30 29 31 32 31 30 31 31 32 36 37 37 37 37 36 36 36 34
33 33 34 35 35 36 35 34 32 31 32 31 31 31 31 32 33 33 35 34 30 29 29 31 31 31 28 31 31 31 30 33 36 36 37 36 35 28
31 32 32 34 34 34 34 33 31 32 30 30 29 28 28 28 28 29 30 32 28 25 27 30 29 29 29 29 30 28 29 24 24 26 31 32 33 31
29 30 31 33 33 32 32 32 31 30 29 28 27 27 26 26 27 27 27 28 28 27 28 29 25 26 25 25 22 25 24 24 26 26 25 28 29 30
28 29 30 30 29 29 29 29 29 28 26 25 24 23 25 27 28 28 29 31 30 30 31 30 29 29 27 25 23 23 23 24 25 24 24 24 23 23
26 26 26 26 25 25 25 25 25 25 24 23 23 24 26 25 25 28 27 27 26 26 30 29 28 28 25 25 26 22 24 22 24 25 25 24 25 23
25 24 23 22 22 22 22 22 23 23 22 23 24 24 24 25 24 26 25 25 22 21 21 26 28 28 27 26 22 23 22 22 23 23 24 21 23 24
22 20 19 19 19 19 19 19 20 20 21 22 22 22 22 22 22 23 23 22 20 20 20 21 21 22 24 25 28 22 21 20 21 23 23 18 19 23
20 19 18 18 18 18 18 18 17 18 19 18 18 19 20 20 19 19 19 20 19 19 19 20 19 17 13 10 20 27 18 20 19 18 19 18 16 19
18 17 17 17 17 16 16 15 15 15 15 15 15 15 16 17 16 16 17 16 18 19 17 18 17 16 12 7 7 15 25 17 15 12 13 18 20 25
16 15 16 16 15 14 13 12 11 11 11 11 11 12 12 14 13 14 15 14 15 16 13 13 16 18 19 16 7 8 14 23 22 17 16 13 10 13
13 13 13 13 13 12 10 10 9 9 9 9 7 7 8 10 9 11 11 11 12 12 13 14 16 16 15 12 9 3 11 11 18 22 22 19 8 7
9 10 9 9 10 8 8 4 3 2 3 5 5 5 1 6 8 8 9 10 11 10 11 9 12 13 12 12 8 6 7 7 11 11 13 20 21 22

GFSNE_sfc_temp_108.txt.gz
Temp
62 61 61 62 62 62 63 61 58 52 52 54 54 61 61 61 59 59 60 53 51 50 51 53 55 56 56 57 58 59 60 61 61 61 61 62 62 62
61 61 61 61 61 60 59 60 59 57 54 58 57 57 61 60 59 59 59 55 50 49 49 50 51 53 54 54 55 55 56 57 58 58 58 59 59 60
61 61 61 61 60 59 59 58 58 56 56 56 57 57 58 59 59 59 59 59 58 48 48 48 48 48 49 49 50 51 52 53 54 55 55 55 55 56
61 60 60 60 60 59 58 57 57 57 54 53 54 55 55 58 59 57 58 59 55 47 47 47 47 46 46 46 46 46 47 48 49 49 50 51 52 53
60 60 60 60 59 58 57 58 59 59 57 54 53 55 55 57 56 56 56 50 49 45 43 43 44 44 44 44 44 44 44 43 43 43 44 45 46 47
59 60 61 60 60 59 58 58 58 57 56 56 53 53 54 55 57 55 52 50 46 46 43 43 43 43 43 43 43 43 42 42 41 41 40 39 40 41
58 59 60 59 54 57 59 58 58 56 55 55 54 53 53 53 54 55 53 48 44 43 41 40 40 41 42 42 43 42 41 41 41 40 39 39 39 39
52 57 59 52 50 47 47 49 55 57 55 55 55 54 54 54 52 54 49 46 44 42 39 36 38 37 38 40 40 40 40 39 39 39 39 38 37 37
43 45 50 50 50 48 40 39 38 39 48 57 55 55 52 53 53 50 50 48 45 37 37 32 35 34 37 38 39 39 38 37 37 38 37 37 37 36
37 40 42 41 39 43 40 36 34 34 35 38 45 38 37 44 52 51 48 34 33 33 36 31 32 32 34 35 38 38 37 37 37 37 37 36 36 35
35 36 37 37 37 40 37 34 33 32 34 34 34 35 35 36 38 42 37 39 32 31 32 32 31 30 32 32 33 36 36 36 36 36 36 36 35 33
33 33 34 35 35 36 36 36 33 32 32 32 32 31 32 32 33 33 36 39 32 30 30 32 31 30 28 31 31 31 31 33 34 35 36 35 34 33
30 30 32 34 34 34 34 33 32 32 31 30 28 28 28 28 28 29 30 32 30 26 28 31 30 30 30 29 26 26 27 26 28 31 32 33 32 32
28 29 30 32 32 32 31 31 31 31 30 28 26 25 25 25 26 26 26 27 27 27 28 29 27 28 28 25 22 24 26 28 30 29 30 30 30 29
27 28 28 29 29 28 29 29 28 28 27 25 24 24 25 26 27 28 29 29 29 28 28 28 27 27 27 25 24 25 27 27 29 28 28 28 28 28
25 25 25 25 24 24 25 25 25 25 25 24 23 24 25 25 25 26 25 26 25 25 30 29 29 30 26 27 26 24 26 24 27 27 27 27 27 27
24 23 22 22 21 21 21 21 22 23 23 23 23 23 23 23 23 25 24 23 20 20 21 26 29 29 29 27 23 24 23 23 24 25 25 23 25 26
22 19 18 19 18 19 18 18 19 19 21 22 22 22 21 21 22 23 23 22 19 19 19 21 22 24 24 24 26 21 22 22 23 24 24 20 21 24
18 18 16 16 17 17 17 16 16 17 19 19 19 20 20 20 20 20 21 21 19 18 18 19 19 18 16 14 21 26 20 20 20 19 21 20 18 20
17 16 15 15 15 15 14 14 14 14 15 16 16 17 18 18 18 18 18 18 18 18 17 18 17 17 15 14 15 18 24 20 19 16 17 19 21 23
14 14 14 14 14 13 12 12 11 11 11 11 12 13 14 16 15 16 16 15 16 17 14 14 17 19 20 18 13 13 17 22 21 18 17 15 14 16
11 11 11 10 10 10 9 9 9 9 9 9 8 9 10 12 12 12 13 13 13 13 13 15 17 18 16 14 11 10 13 15 18 20 20 19 15 10
5 8 7 6 7 6 6 4 3 3 5 6 6 6 4 7 9 10 10 11 11 11 11 11 13 14 13 12 10 9 10 11 13 13 15 19 20 20

GFSNE_sfc_temp_111.txt.gz
Temp
63 63 63 64 63 65 65 65 61 53 52 56 56 61 63 66 64 67 68 56 51 51 52 53 55 56 57 58 58 59 61 61 62 62 62 62 63 63
63 62 62 63 63 63 64 63 64 58 54 64 58 59 61 62 61 67 68 58 50 49 49 50 52 54 54 55 56 56 57 58 59 59 60 60 61 61
62 63 62 63 62 63 63 65 60 59 56 64 59 58 59 59 61 64 67 67 67 49 49 49 49 50 50 51 51 52 53 54 55 56 57 57 59 59
63 63 62 62 61 63 61 60 61 60 60 56 56 56 57 59 61 63 65 68 69 51 48 48 47 47 47 47 47 48 48 49 50 51 52 53 54 56
61 61 63 64 61 60 60 59 59 59 59 58 54 56 57 58 58 60 63 63 60 46 44 44 46 46 45 45 45 45 45 45 44 45 45 47 49 50
60 61 60 60 60 60 60 60 59 57 57 56 55 54 56 56 59 56 52 53 51 50 45 45 44 43 43 43 43 43 43 43 42 41 41 40 41 43
57 58 60 60 54 56 60 59 59 57 56 55 55 55 54 54 54 57 54 49 47 46 44 44 45 45 44 43 43 42 42 41 41 41 40 40 40 40
51 53 56 51 50 46 46 48 55 57 56 55 55 54 55 56 56 55 50 46 44 45 43 39 42 40 41 41 41 40 40 40 40 40 39 38 38 38
43 44 47 50 44 47 40 40 41 43 51 58 56 56 56 56 56 54 51 51 48 42 41 35 37 35 38 39 39 39 38 38 38 38 37 36 36 35
37 38 40 41 41 42 39 36 34 34 36 40 51 43 42 56 57 56 54 38 35 34 38 32 33 33 35 37 38 38 38 37 37 37 36 36 35 35
34 35 36 37 36 39 36 34 33 32 34 35 35 35 35 36 40 47 42 42 33 33 33 33 32 31 32 32 34 37 36 36 36 36 35 35 35 34
32 33 33 34 35 35 38 36 33 32 33 33 33 33 33 33 34 33 41 45 33 32 33 32 31 31 28 32 32 33 34 36 35 35 33 33 34 36
28 28 30 32 33 33 33 32 31 32 32 32 32 31 29 28 28 29 31 34 33 28 30 33 32 32 31 27 26 27 29 28 29 30 33 33 33 34
25 27 28 30 30 30 30 31 31 31 30 28 27 25 25 25 25 26 27 27 28 27 29 32 30 31 28 24 21 25 26 27 29 31 33 32 31 30
27 27 28 28 27 26 28 28 28 28 27 25 24 24 25 26 27 26 26 27 26 27 29 30 30 30 29 25 23 24 24 26 33 33 34 34 35 35
27 26 26 26 25 24 24 25 25 25 24 24 24 25 26 25 25 26 24 24 23 23 27 28 29 29 26 27 28 26 29 28 33 33 33 33 34 33
28 27 25 25 23 23 22 22 23 24 24 24 24 23 24 24 24 25 24 23 21 21 22 25 27 28 29 28 24 27 26 25 27 27 28 27 30 32
26 24 22 22 21 20 20 20 21 22 23 24 24 24 23 23 23 23 24 23 21 21 22 24 25 24 24 24 27 24 25 25 27 28 29 26 27 31
23 22 21 20 19 19 19 18 18 19 21 22 22 23 23 23 24 23 23 22 21 21 21 23 23 24 21 18 22 27 24 24 25 25 26 26 24 26
22 20 20 20 19 18 18 18 17 18 18 19 19 20 21 22 21 21 21 20 19 20 19 21 21 21 22 20 20 20 25 24 24 23 24 25 27 25
19 19 19 19 19 19 17 17 17 16 17 17 18 19 20 21 20 20 20 20 20 20 18 18 20 21 24 24 19 19 22 22 22 22 22 22 22 24
17 17 17 16 16 16 16 16 17 16 16 17 16 17 19 20 19 19 19 18 18 19 18 20 22 23 22 21 17 16 20 21 23 20 20 19 21 18
14 15 15 14 15 14 15 14 14 14 14 15 16 16 16 17 18 19 18 18 18 18 19 18 20 21 19 18 17 18 14 17 20 21 24 20 20 20

GFSNE_sfc_temp_114.txt.gz
Temp
68 69 70 72 74 72 71 70 64 58 55 63 66 65 63 63 61 62 67 57 52 52 52 54 56 57 58 58 59 60 62 63 63 63 63 63 64 64
67 65 66 68 68 69 67 66 64 63 58 64 70 72 64 62 61 63 67 59 52 50 50 51 53 54 55 55 56 57 58 59 60 60 61 61 62 62
65 64 64 66 64 63 63 64 64 62 58 62 66 68 59 60 61 61 63 64 69 50 49 50 50 51 51 52 53 54 54 55 56 57 58 59 60 61
63 62 62 64 64 68 67 63 64 64 61 60 63 60 59 61 61 59 62 66 69 55 50 49 49 49 49 49 49 50 50 51 52 53 54 55 56 58
62 63 66 68 67 66 64 63 63 62 63 60 59 64 62 63 58 59 60 61 66 50 47 47 47 48 47 47 47 47 48 47 47 47 48 49 51 53
62 65 67 66 65 64 63 61 61 60 59 58 58 56 58 59 59 57 56 57 53 58 48 48 48 46 46 45 45 45 45 44 44 43 43 42 43 45
63 65 64 55 47 48 54 61 63 59 58 57 56 56 55 54 54 57 56 51 48 48 46 47 47 47 45 44 44 43 42 42 42 42 42 41 41 42
48 49 52 51 50 43 42 41 45 57 59 57 56 55 56 56 56 56 55 47 44 46 44 40 45 43 44 44 42 41 41 41 41 41 41 40 40 39
38 39 43 47 45 48 46 41 38 36 37 47 56 56 56 58 57 55 53 51 51 43 42 35 39 38 40 40 40 40 40 40 39 39 38 37 37 36
35 35 37 39 39 40 45 42 37 36 35 37 37 40 46 58 58 57 55 46 39 40 39 33 35 34 37 38 39 38 38 38 37 36 36 35 35 35
33 33 34 35 35 37 41 38 35 34 35 36 35 35 35 35 44 55 42 42 34 34 34 33 32 32 33 33 35 37 36 36 35 34 34 33 33 34
30 31 32 32 33 34 35 36 33 32 32 33 33 33 33 33 34 35 46 46 34 33 33 33 32 31 28 32 33 33 33 34 34 34 33 32 33 35
27 27 29 31 32 32 32 31 30 32 31 30 30 30 29 29 29 31 32 34 35 32 33 34 33 32 30 27 27 31 32 32 32 31 31 30 32 34
26 27 28 30 31 30 29 30 30 30 29 27 26 25 26 25 26 27 28 29 30 29 31 32 33 32 28 24 22 26 27 28 29 28 28 29 31 32
30 29 29 29 28 28 29 28 28 27 26 24 23 24 26 27 28 28 28 28 27 27 29 32 31 30 30 25 23 24 24 27 29 28 29 32 34 35
31 32 31 30 30 28 27 27 28 27 25 24 24 25 26 26 25 26 26 26 25 24 27 29 30 30 27 27 26 26 26 25 29 29 32 33 34 35
32 32 31 31 30 30 30 29 30 29 27 27 26 26 25 25 24 26 25 25 24 23 23 26 27 27 28 29 26 28 27 28 30 30 30 29 32 34
31 28 27 27 27 28 28 28 28 28 28 28 27 27 27 27 26 25 25 24 22 23 24 26 26 25 25 24 27 25 26 25 26 27 28 26 28 32
27 26 25 25 26 27 26 27 26 26 27 27 27 27 26 26 26 25 24 23 22 22 22 24 26 26 23 18 22 25 23 24 24 25 27 28 27 30
27 26 26 26 26 26 26 25 25 26 26 25 25 25 25 25 24 24 23 22 21 21 20 22 23 24 24 21 19 20 24 25 25 25 26 28 29 28
25 25 25 25 25 26 25 25 24 24 24 24 25 24 24 26 23 23 23 23 23 23 21 21 21 25 26 26 20 19 22 22 23 24 25 25 26 28
23 23 23 23 22 23 23 22 24 24 24 24 23 24 25 25 24 24 24 23 23 23 22 24 26 27 26 25 20 19 22 23 23 21 21 19 22 22
19 21 21 20 21 21 22 21 20 22 21 22 23 23 23 23 24 24 24 24 24 23 24 23 25 26 24 23 23 21 19 22 25 25 25 20 21 21

GFSNE_sfc_temp_117.txt.gz
Temp
67 68 71 73 74 74 74 70 69 63 64 70 70 72 70 65 62 63 62 53 51 51 52 54 56 58 58 59 60 61 62 62 63 63 63 63 64 64
67 67 67 71 72 72 73 72 70 67 63 71 68 70 70 67 63 63 64 56 50 50 50 52 53 55 56 56 57 58 59 60 61 61 62 62 63 63
66 65 67 70 68 65 65 68 68 66 60 66 71 72 71 67 65 63 64 62 61 50 50 50 50 51 52 53 53 55 56 56 57 58 59 60 62 63
64 64 64 66 67 66 64 63 63 64 63 60 67 66 67 70 67 63 61 64 62 54 49 50 50 49 49 50 50 51 51 52 53 54 55 57 58 59
64 62 65 64 62 62 65 66 66 65 66 63 61 64 64 68 64 62 61 61 62 58 48 49 50 49 49 49 49 49 49 49 49 50 50 51 52 54
61 61 62 62 61 58 62 62 65 64 61 60 61 60 61 62 63 58 57 59 58 56 49 52 50 49 49 48 48 48 48 48 48 47 47 45 46 48
54 55 52 48 43 45 52 54 53 54 57 58 58 58 58 56 56 59 57 57 51 50 47 47 49 50 51 46 50 47 46 46 46 46 45 44 43 44
44 45 49 47 46 43 42 41 41 46 49 53 56 56 57 58 58 56 56 48 45 46 46 41 45 44 44 48 46 44 43 43 44 44 43 43 42 42
36 39 42 43 41 44 45 42 39 36 36 39 43 49 51 55 57 56 55 52 53 46 43 36 39 37 40 41 41 41 41 42 41 41 41 40 39 39
33 34 35 36 36 37 43 44 39 38 37 37 36 34 34 35 38 54 57 54 40 42 40 33 35 33 36 38 40 40 40 40 40 39 38 37 36 36
31 32 33 33 34 36 40 38 34 33 35 36 35 35 34 35 35 42 50 43 34 34 34 34 32 32 32 32 35 37 36 37 36 35 35 35 34 33
31 31 32 32 33 33 32 33 32 31 31 32 31 32 32 31 33 33 35 45 35 33 34 33 33 32 28 32 32 32 32 33 34 34 34 34 32 30
27 27 28 31 31 32 31 30 29 31 30 29 29 29 29 30 29 30 31 32 35 33 35 34 33 32 31 27 30 32 32 31 31 32 33 33 33 32
29 30 30 31 30 30 29 30 30 30 29 27 26 25 25 26 28 29 29 29 31 32 32 33 33 32 28 26 24 28 29 29 29 28 28 30 29 29
32 32 33 33 33 32 31 30 30 29 27 25 24 24 25 26 28 28 29 29 28 28 31 32 32 31 29 26 24 25 25 27 28 27 27 27 27 28
33 33 33 32 33 33 32 32 32 31 29 28 27 27 27 26 25 27 26 27 25 25 27 30 30 30 26 26 26 24 26 24 27 28 29 29 30 32
33 32 31 31 30 31 31 31 31 31 30 31 31 31 30 29 27 27 26 26 24 23 23 26 26 28 29 28 25 26 26 26 29 29 29 27 29 29
31 28 27 27 27 27 27 27 28 28 28 29 30 31 29 29 28 28 27 26 24 24 25 27 27 26 26 25 28 25 25 24 25 26 27 26 26 28
28 28 27 27 27 27 27 26 25 26 28 28 28 28 30 29 28 27 26 24 23 24 24 26 27 26 22 17 22 26 24 24 24 24 25 25 25 28
27 26 25 26 26 27 26 26 26 26 26 26 26 26 27 27 26 26 25 23 23 22 22 22 23 24 22 20 19 19 25 24 24 22 23 26 29 29
25 26 25 25 25 25 24 24 25 25 26 26 25 26 26 26 25 25 24 22 22 22 19 19 21 24 24 23 18 18 19 24 24 24 24 24 24 26
22 23 24 23 22 22 23 23 24 24 24 24 24 24 25 27 26 26 26 25 24 23 23 25 27 27 26 24 19 18 19 21 23 23 22 21 21 22
19 20 21 20 20 20 21 20 20 20 21 22 22 23 24 24 26 26 26 25 26 25 25 24 26 27 26 24 22 20 19 21 23 20 21 22 22 22

GFSNE_sfc_temp_123.txt.gz
Temp
65 65 66 67 68 67 63 61 60 54 56 58 58 64 64 63 61 61 61 55 51 50 51 53 55 57 58 59 60 61 62 63 63 63 63 63 64 64
64 64 65 67 66 66 63 62 60 59 55 61 60 61 64 63 61 61 61 56 50 49 49 50 52 55 55 56 57 58 59 60 61 61 61 62 63 63
64 64 65 66 65 64 64 62 60 59 58 58 60 60 60 61 60 60 60 60 60 49 48 48 48 50 51 52 54 55 57 57 58 59 60 61 62 63
63 64 64 65 64 64 62 62 62 60 57 57 58 58 58 59 61 59 59 61 61 54 48 48 48 48 48 49 50 51 52 53 54 55 57 58 60 62
64 63 64 64 63 63 60 59 58 59 58 57 58 58 58 59 57 58 58 59 61 56 49 47 47 47 47 48 49 49 50 50 51 51 52 53 54 56
58 56 52 53 58 60 60 59 57 57 57 57 56 57 57 58 58 58 57 59 59 60 55 51 49 48 47 47 48 49 49 49 49 49 49 48 48 50
45 42 41 42 42 43 51 51 53 52 51 53 52 54 54 55 54 56 56 56 58 59 58 58 55 52 51 47 49 48 48 49 49 50 50 48 47 48
38 37 39 39 41 39 38 38 37 46 47 48 49 49 50 47 42 44 48 53 53 52 56 56 51 55 55 55 49 47 46 47 48 49 49 49 48 47
33 34 35 37 39 42 38 37 35 35 35 39 41 38 38 35 35 37 41 42 46 47 48 52 41 43 39 41 41 42 43 45 46 47 47 47 46 45
31 31 32 32 34 38 37 34 32 33 32 33 32 31 32 33 33 35 35 36 38 40 44 42 34 33 34 35 39 40 41 42 44 45 46 46 45 44
31 32 31 31 33 33 32 31 30 29 32 33 33 33 33 33 33 33 31 31 34 35 34 35 32 32 32 32 33 37 38 40 41 42 44 44 41 38
31 31 32 32 32 32 29 28 26 26 28 28 28 29 30 30 31 29 28 28 31 34 33 34 32 32 30 31 31 32 33 35 37 39 40 42 40 37
29 30 31 33 33 33 32 30 28 28 27 27 27 27 28 28 28 29 28 26 26 30 32 33 33 32 31 28 29 31 32 32 32 33 34 34 35 36
27 29 30 32 32 32 30 31 31 30 29 28 27 26 26 26 27 28 29 28 28 26 28 31 32 32 29 27 26 28 28 28 29 30 31 32 33 32
28 30 31 30 30 28 30 29 28 27 27 27 26 26 27 28 28 28 29 29 29 29 28 30 32 32 31 28 26 24 24 25 27 27 27 27 28 28
26 26 26 28 26 26 26 26 25 25 25 24 24 27 28 27 26 26 22 24 24 26 29 28 29 30 28 29 28 25 25 23 26 26 26 27 27 28
23 23 22 22 21 21 22 23 24 24 23 24 24 24 25 25 24 25 24 21 20 21 22 26 27 28 27 27 24 25 24 24 26 26 27 25 27 27
20 17 16 17 17 18 18 19 21 21 22 23 23 23 23 22 22 23 22 19 19 19 19 21 24 23 24 25 28 24 25 25 26 27 26 24 23 25
16 15 13 14 15 16 17 17 17 18 21 20 20 20 22 23 21 21 21 20 19 19 20 21 22 19 16 13 21 28 24 25 25 24 25 25 22 23
15 14 13 13 14 14 14 14 15 15 15 16 17 17 18 20 19 20 19 17 19 19 19 20 20 19 16 13 13 17 27 23 23 21 21 23 25 27
12 12 13 13 12 13 11 11 12 11 10 10 11 13 15 17 17 17 16 16 17 19 17 18 21 23 23 22 14 15 17 26 25 22 22 20 19 20
7 11 12 11 8 9 10 8 9 8 8 8 8 9 12 15 15 15 13 9 16 18 19 21 24 24 22 19 15 14 15 17 22 24 23 22 21 17
1 4 2 -0 1 3 9 5 3 1 2 4 6 8 10 12 15 14 15 14 14 14 16 19 21 22 21 19 17 16 15 16 18 18 20 24 24 24

GFSNE_sfc_temp_126.txt.gz
Temp
61 60 59 61 61 65 61 61 61 52 56 56 57 64 65 63 61 61 61 54 51 50 50 52 54 57 57 59 59 61 62 63 63 63 63 64 64 64
60 59 60 61 63 61 64 64 59 61 57 62 59 59 63 63 60 61 61 55 51 50 49 49 51 53 55 56 57 58 59 60 61 61 61 62 63 63
60 60 61 63 63 60 61 64 63 59 57 57 58 58 60 61 61 60 61 60 60 50 49 48 48 49 50 51 52 54 55 57 58 59 60 61 62 63
58 62 63 64 63 62 61 63 63 61 58 59 56 56 58 61 61 59 60 61 61 54 49 48 47 47 47 48 49 50 51 53 54 55 57 58 60 61
55 57 59 58 60 63 63 63 62 61 59 56 56 57 57 57 58 58 59 59 60 55 48 47 47 47 47 47 47 48 49 49 50 51 52 53 55 57
43 42 43 46 53 63 63 62 61 60 59 58 55 54 56 56 56 56 56 58 58 59 55 51 49 47 47 47 46 47 47 49 49 50 50 49 49 52
39 40 40 40 40 41 54 50 58 59 57 56 54 54 55 55 54 53 55 55 57 57 57 58 56 53 52 46 48 46 46 47 48 49 49 48 47 48
34 36 38 39 40 37 37 38 38 45 50 51 51 50 46 43 42 43 45 48 50 49 54 57 55 56 54 53 42 44 44 45 46 47 48 47 47 47
32 33 33 35 36 37 36 35 34 34 34 41 39 35 36 34 36 38 41 41 43 45 43 44 42 42 39 40 40 41 41 42 43 44 45 45 45 45
31 31 31 32 32 33 33 32 30 32 32 33 31 31 31 32 32 34 35 35 35 37 39 37 35 36 34 35 37 38 39 40 41 42 43 43 43 43
30 31 31 31 33 33 30 29 28 28 31 32 33 32 32 32 32 33 30 31 33 34 34 34 33 32 32 32 33 36 36 38 39 40 41 42 42 42
29 30 31 30 32 31 29 29 27 26 27 28 29 29 30 30 31 29 28 28 29 32 30 30 33 33 33 31 31 32 32 34 36 36 37 41 41 43
26 26 28 31 31 30 30 27 27 29 29 29 28 28 28 28 28 29 28 26 25 27 30 28 32 32 32 30 29 29 29 30 31 31 34 38 38 37
24 25 27 30 29 29 27 29 29 27 27 27 26 25 25 26 26 27 29 29 28 26 28 28 29 32 30 27 27 27 27 27 29 29 30 32 34 34
24 26 27 27 27 25 28 27 25 24 24 23 23 24 25 26 26 26 27 26 27 28 29 27 28 29 31 29 27 25 25 25 27 27 28 28 28 29
21 21 22 23 21 21 21 22 22 22 22 22 22 24 25 25 24 25 23 23 22 23 26 27 27 28 28 28 27 25 25 24 26 27 27 27 27 28
18 17 16 16 15 16 17 18 18 19 19 20 20 21 23 23 22 23 23 21 18 18 19 23 27 27 26 26 24 24 24 24 26 26 27 25 25 26
15 12 10 11 11 12 13 13 15 14 15 17 17 18 18 21 21 22 22 20 18 18 18 19 20 20 22 23 27 24 25 25 26 27 26 23 22 25
11 11 9 9 10 10 10 11 10 11 12 12 13 13 16 18 18 19 18 18 18 19 19 20 19 15 10 10 19 26 23 25 25 24 25 23 22 23
11 9 8 8 9 9 9 8 9 8 8 8 8 9 10 14 15 16 16 10 14 18 18 19 19 18 12 10 10 17 27 23 23 22 22 23 24 26
10 9 8 7 8 8 6 3 1 2 2 2 5 7 7 11 13 14 13 11 12 18 17 17 20 22 22 21 12 14 18 27 26 23 22 20 19 20
3 7 7 5 0 2 -2 -9 -2 -1 -0 1 1 3 4 8 10 12 12 9 12 13 16 21 23 23 22 19 15 14 16 18 23 24 24 23 20 16
-2 2 -0 -4 -4 -3 2 -5 -6 -9 -4 -2 -1 2 2 4 10 11 9 11 12 12 13 14 19 21 20 18 17 16 15 17 18 19 19 22 22 23

GFSNE_sfc_temp_129.txt.gz
Temp
61 61 61 63 63 61 60 59 58 55 56 57 58 62 63 63 61 61 61 54 52 51 51 52 54 56 57 58 59 61 62 63 63 63 63 64 64 65
60 59 58 61 60 61 62 61 60 59 56 60 58 58 62 62 60 61 61 55 50 49 49 49 51 53 54 55 56 57 59 60 61 61 62 62 63 63
60 60 58 59 58 59 60 61 61 61 58 61 58 59 59 61 61 61 61 60 59 48 48 48 48 49 50 51 52 53 55 57 58 59 60 61 62 63
60 57 57 58 57 58 59 59 59 59 59 59 60 56 58 60 61 60 61 61 61 52 48 48 47 47 47 48 48 49 50 52 53 55 56 58 59 61
46 46 46 53 57 58 59 59 59 59 59 59 61 58 58 57 59 59 59 60 61 55 49 49 48 47 46 46 47 48 48 48 49 49 50 51 54 56
41 41 40 39 43 44 52 59 60 58 59 59 60 57 56 56 58 58 56 58 57 59 54 51 48 47 46 46 45 46 47 48 48 47 47 46 48 51
37 39 40 39 38 38 41 38 41 56 60 59 58 57 56 55 56 55 55 55 56 56 56 56 53 51 50 45 48 46 45 45 46 47 47 46 46 48
33 34 36 37 37 36 36 35 34 37 36 41 57 55 49 45 43 46 48 51 51 46 49 53 53 54 53 48 41 41 42 43 44 45 46 46 46 45
30 31 32 34 35 36 35 34 33 33 34 34 32 31 32 32 36 40 41 42 44 41 42 42 44 44 40 39 39 40 40 41 41 42 43 43 43 43
29 29 29 30 32 33 32 31 30 31 31 32 31 30 31 32 32 33 34 34 35 36 37 35 35 35 35 35 37 38 39 39 40 41 41 41 41 41
27 29 28 28 31 32 30 29 28 28 32 33 33 32 32 32 31 32 30 32 33 33 29 31 33 33 32 32 33 36 36 37 37 38 38 39 40 40
26 26 30 29 30 30 27 27 26 27 28 28 28 29 29 29 31 29 28 27 28 31 27 27 32 32 33 31 31 31 32 34 35 35 37 38 39 39
22 22 25 29 29 29 28 25 25 27 27 27 27 27 27 27 27 27 28 27 25 25 28 27 28 32 32 31 30 29 29 30 31 30 34 36 37 37
20 21 23 26 26 27 24 26 26 25 24 24 24 23 23 23 25 26 27 27 28 27 28 27 26 28 29 30 29 28 28 28 29 29 30 31 33 34
19 21 23 23 22 21 23 22 20 20 20 19 19 21 23 24 25 25 26 26 27 27 27 27 26 26 27 29 28 27 26 27 28 28 28 28 28 29
16 15 16 18 15 15 16 17 16 16 16 16 16 19 22 23 23 24 23 23 21 22 26 23 24 25 24 26 27 26 26 25 26 27 27 27 28 28
13 12 11 11 10 10 12 12 12 12 11 13 13 14 16 19 20 22 21 20 16 16 18 21 22 21 21 23 24 24 25 25 26 27 27 24 25 27
11 7 6 7 7 8 7 8 9 8 8 10 9 11 12 14 16 18 18 17 16 17 17 18 19 18 19 19 25 20 23 25 26 26 26 23 23 26
7 5 3 4 6 7 6 5 4 5 7 6 6 7 8 10 13 15 15 14 15 17 18 18 18 17 10 6 17 26 20 23 25 24 24 23 22 23
9 6 4 5 6 6 5 3 2 1 1 2 3 3 4 6 9 11 12 9 11 15 17 18 17 18 12 9 9 14 27 21 22 21 21 23 24 26
8 8 3 5 6 6 -2 -4 -11 -4 -4 -6 -1 0 1 4 7 9 10 9 9 13 12 14 19 22 20 19 11 14 17 27 25 23 22 20 19 21
1 6 6 3 -1 1 -6 -12 -5 -7 -2 -2 -3 -3 -2 1 4 7 8 7 9 11 13 16 20 21 20 18 14 13 16 18 24 25 25 24 20 16
-2 1 -0 -4 -5 -5 1 -7 -7 -9 -6 -4 -4 -2 -3 0 4 5 7 7 8 9 11 13 15 17 18 18 16 15 16 17 19 19 19 23 24 26